GFSWCAN_925_spd_102.txt.gz
Wind_Speed
26 24 28 28 26 22 20 19 19 19 19 17 16 15 16 15 15 16 13 15 13 3 5 5 6 4 5 2 1 5 5 5 3 2 2 3 2 2 3 2 2 7 6 3 3 2 6 4 2 1 3 3 4 5
25 26 30 32 27 23 20 19 20 20 19 17 17 17 17 17 15 14 10 16 21 3 5 12 15 19 14 9 3 2 3 2 1 3 3 3 3 2 3 3 1 4 5 5 6 6 4 5 4 2 4 2 5 6
28 28 26 29 27 23 21 20 22 21 19 19 20 19 19 19 18 18 16 14 16 4 8 10 9 27 30 32 24 2 2 3 3 3 2 3 3 0 2 3 4 6 4 1 4 3 3 4 5 4 3 8 6 7
25 29 29 27 25 23 22 23 24 24 22 22 22 20 21 21 20 18 21 20 18 1 3 5 13 11 17 18 21 25 11 4 4 2 2 3 3 3 2 3 3 4 2 3 3 3 1 4 4 3 10 10 11 11
26 24 29 27 24 23 24 25 25 25 24 24 23 23 23 21 19 19 23 25 26 6 3 3 12 16 18 16 20 24 10 5 3 2 2 3 3 3 3 3 2 4 4 2 1 7 3 2 9 9 11 6 7 9
24 21 21 23 25 26 26 27 27 27 26 26 25 25 23 21 19 14 4 23 29 30 3 2 5 4 3 16 15 7 8 4 3 3 3 2 4 1 2 3 2 4 5 3 4 5 9 13 14 11 7 7 7 9
24 24 25 26 27 27 28 29 30 29 29 27 25 22 21 21 21 5 3 3 25 27 3 2 4 3 5 6 1 2 6 3 3 3 2 2 2 1 2 3 8 5 10 13 14 6 10 14 8 12 12 10 14 13
27 27 27 28 28 29 32 32 31 29 29 26 24 20 18 19 18 10 10 3 24 8 2 2 4 3 1 2 1 1 3 2 1 3 1 2 2 2 3 1 9 9 9 11 11 10 9 7 11 13 12 10 6 6
28 30 31 32 33 31 31 33 32 32 34 29 22 19 11 7 4 5 14 8 14 3 3 2 3 3 2 1 1 1 2 2 2 4 3 2 2 4 2 7 10 11 8 8 7 11 12 13 12 11 10 11 7 6
32 32 30 31 31 32 29 29 26 20 25 28 20 5 3 8 15 18 6 4 2 2 2 4 3 2 3 3 2 2 3 3 3 4 3 5 2 9 10 10 9 11 11 11 4 8 10 10 10 10 9 8 7 5
32 33 33 32 31 32 25 24 21 23 35 8 3 3 9 28 5 1 3 3 3 3 4 4 7 3 3 3 3 3 3 4 4 4 8 4 2 3 8 9 10 11 10 10 8 8 8 7 8 8 7 8 7 7
30 30 29 25 22 23 26 23 34 21 14 12 15 15 8 3 2 3 3 3 5 5 4 4 4 4 2 3 2 3 3 3 4 6 3 2 2 7 7 8 9 8 8 9 11 9 10 10 10 8 7 7 7 6
23 24 24 23 22 24 24 41 35 37 38 21 5 3 3 1 3 5 6 3 3 2 3 2 1 3 2 1 1 2 2 4 3 1 2 2 5 5 5 6 7 9 7 8 8 9 8 9 11 11 8 8 6 8
24 27 27 27 28 32 42 47 45 35 12 3 4 6 3 3 4 2 1 2 1 2 2 3 2 2 1 2 1 1 3 1 2 2 2 2 4 4 4 5 5 6 7 7 5 8 9 9 9 11 10 8 8 9
27 33 30 34 33 47 49 50 33 15 6 3 3 3 2 2 2 1 0 2 3 2 2 2 3 2 1 2 2 1 1 3 3 1 2 2 4 4 3 3 4 5 5 5 7 8 9 10 10 11 11 10 11 14
45 44 43 50 49 47 40 29 16 6 4 3 6 2 2 3 3 3 3 2 3 4 2 1 2 3 3 2 2 3 2 1 1 2 2 3 3 3 3 3 2 4 7 8 9 9 10 11 11 11 14 15 15 16
31 24 52 48 36 32 28 16 7 5 3 4 3 3 2 3 3 2 3 3 3 2 1 2 2 1 2 3 3 3 1 1 3 3 2 2 2 2 2 5 5 6 6 9 12 12 12 12 12 13 11 14 17 17
35 38 39 36 40 30 10 8 4 4 6 4 3 2 2 2 1 3 4 5 3 2 2 3 3 6 3 3 2 2 3 3 3 2 2 1 2 7 8 6 8 7 8 10 12 13 13 13 11 9 11 13 16 16
33 31 24 21 12 8 3 4 4 4 3 2 2 2 3 2 4 4 5 5 5 6 3 3 5 3 2 2 1 2 2 1 2 1 1 3 5 7 7 9 10 11 11 10 9 8 10 11 10 11 10 11 11 11
21 18 18 12 7 5 4 3 5 4 3 1 2 3 2 2 2 4 7 6 5 3 5 4 2 2 2 2 2 2 2 3 2 2 2 2 3 7 7 9 11 12 12 12 13 13 13 12 12 11 12 12 12 11
22 16 13 10 5 8 4 2 3 3 3 3 3 2 2 3 3 4 3 5 5 3 3 2 1 2 7 8 10 7 7 7 4 2 0 2 8 8 10 11 11 10 11 9 9 10 12 10 11 13 14 15 15 15
6 7 5 6 4 4 4 5 4 3 3 3 2 2 3 2 2 3 1 6 3 2 2 1 1 1 4 6 8 12 11 11 12 12 13 10 3 4 6 8 9 8 9 8 8 8 9 10 12 14 16 16 17 17
7 5 5 6 5 4 1 1 3 3 3 3 2 3 3 2 2 1 3 3 2 2 3 4 8 10 8 11 16 20 16 14 10 10 10 10 12 13 12 11 10 9 7 9 8 9 9 10 11 12 14 15 16 15
5 5 4 3 4 2 2 3 2 3 3 2 3 3 2 2 2 3 3 2 2 8 5 5 7 4 7 10 6 10 14 10 11 14 13 9 8 10 12 11 10 9 9 10 10 11 11 11 11 13 13 13 13 13
7 6 5 5 3 5 4 3 3 4 3 2 3 2 1 2 3 3 2 1 2 3 3 10 10 7 4 1 7 12 13 11 9 8 13 8 10 11 11 14 13 8 6 9 9 10 10 10 11 12 13 14 14 14
7 4 4 1 2 4 2 3 2 3 3 3 1 0 3 3 4 2 2 2 1 0 1 3 4 3 3 8 3 9 10 7 11 10 13 12 10 8 8 5 6 9 4 5 8 9 10 10 11 12 12 11 11 13
4 2 2 3 2 4 4 3 3 5 4 3 1 3 3 4 2 1 2 2 2 9 12 12 14 12 8 9 11 9 10 10 13 14 14 16 15 12 11 10 7 6 6 4 5 7 9 9 10 10 11 10 9 11
2 3 4 4 5 3 4 3 3 2 1 1 3 4 4 5 2 2 3 14 14 13 13 12 11 11 11 9 6 4 6 11 12 15 14 15 16 13 9 8 7 6 5 5 5 5 5 7 9 10 9 9 9 8
3 1 4 6 5 5 4 3 1 0 1 2 4 2 2 2 1 6 12 16 14 10 12 13 13 12 13 12 11 10 8 11 14 4 4 2 6 12 10 9 7 9 7 5 7 5 5 6 8 8 8 8 7 7
1 2 4 3 5 4 3 2 0 2 2 4 3 7 5 5 11 17 16 17 17 15 15 14 12 10 10 12 13 14 14 12 10 8 4 2 3 4 3 5 7 5 5 6 5 7 9 9 8 9 8 8 6 4
3 3 4 4 4 1 2 5 12 9 4 4 4 4 3 3 6 12 13 10 16 14 12 12 11 8 10 9 6 6 6 6 7 7 7 6 3 2 3 4 4 3 3 4 3 3 2 6 6 7 6 6 5 5
3 3 4 5 3 2 1 2 2 3 1 3 2 2 3 3 2 3 6 8 14 13 11 9 11 11 9 8 7 7 6 6 4 2 0 1 1 1 1 2 2 1 2 3 2 3 4 6 6 8 5 6 5 3
4 4 4 4 3 1 2 4 3 2 3 2 0 2 2 3 3 3 3 9 7 10 11 9 9 9 9 8 8 9 9 8 7 6 5 5 5 2 0 0 1 1 2 3 3 4 5 5 6 5 4 3 2 1

GFSWCAN_925_spd_105.txt.gz
Wind_Speed
31 32 31 29 32 30 27 21 20 21 19 20 21 17 15 14 12 18 14 15 15 3 5 5 4 3 3 1 2 4 5 4 3 4 2 3 2 3 2 2 6 3 3 3 3 2 7 3 4 1 3 3 6 3
30 30 29 30 32 31 28 24 22 22 20 20 21 18 15 13 13 16 7 15 21 4 5 6 14 18 19 12 2 3 3 1 2 2 3 3 3 2 1 3 2 2 5 2 7 6 5 3 3 2 3 3 3 6
29 27 28 25 26 31 31 26 23 21 19 21 19 17 16 14 15 16 11 12 12 2 5 9 11 30 27 31 24 3 2 4 2 2 1 2 4 2 2 3 2 4 5 4 3 3 1 3 5 2 6 7 7 7
30 26 26 27 26 28 31 28 25 22 21 21 19 15 15 15 16 16 17 16 14 1 3 5 8 11 13 20 29 30 13 3 4 2 2 3 2 3 3 6 3 4 6 4 3 4 6 5 9 2 12 8 10 10
30 26 24 27 27 27 29 29 26 22 22 21 18 17 16 16 16 16 18 20 22 5 2 4 13 22 14 21 24 26 15 3 2 2 3 3 3 3 3 3 2 3 4 2 1 5 6 5 10 6 11 7 6 8
27 25 24 25 27 28 28 27 23 21 23 22 20 19 19 19 17 12 3 19 29 24 2 3 5 4 1 11 15 12 12 4 3 3 3 2 3 0 3 2 4 8 6 11 5 1 8 13 17 14 10 9 11 10
26 24 23 20 25 26 25 25 24 23 22 22 21 21 20 19 20 7 4 1 17 27 2 2 4 4 5 6 3 2 7 3 3 3 3 2 2 1 2 3 8 11 9 10 8 4 6 14 7 10 9 10 11 11
24 24 24 25 23 24 26 27 26 24 23 22 21 20 18 19 18 16 31 10 13 9 3 3 4 4 2 2 2 2 3 2 1 3 1 2 1 2 3 0 7 10 8 12 12 12 9 8 10 10 10 8 6 6
24 23 25 26 25 26 26 26 26 24 22 21 21 17 12 8 6 6 7 14 8 4 2 2 3 3 1 1 2 0 2 2 2 3 3 3 3 4 5 6 8 10 7 9 4 10 11 11 10 10 10 10 7 6
26 26 27 28 28 28 27 26 26 24 24 20 16 7 3 8 13 16 9 5 2 2 2 4 1 2 3 1 3 2 2 3 3 5 4 3 2 8 8 8 7 8 9 10 7 7 10 10 10 11 10 8 7 5
27 27 28 29 29 29 29 28 26 24 21 13 4 2 8 26 5 2 3 3 3 3 4 4 7 3 3 3 3 2 3 3 3 4 5 4 2 3 6 7 7 8 8 9 7 6 7 6 7 8 9 9 9 8
29 30 31 30 29 28 27 28 26 21 12 16 15 16 9 3 2 3 3 3 4 5 3 4 5 4 2 2 3 3 4 4 4 6 3 2 2 4 5 7 7 7 6 7 10 7 7 9 10 7 6 7 8 6
32 31 30 29 29 29 26 25 23 32 39 21 6 3 3 1 3 6 6 3 4 3 2 2 3 4 1 3 2 2 3 3 4 2 1 2 5 4 5 5 5 7 7 8 8 10 9 8 10 10 8 10 7 9
35 31 29 28 24 21 27 40 43 35 11 3 4 6 3 3 4 3 1 2 1 0 0 2 2 2 2 3 1 1 2 1 1 3 2 2 4 4 5 4 4 4 5 6 6 8 9 9 8 11 11 10 9 9
27 25 27 25 30 33 46 49 31 16 5 3 3 3 2 2 2 1 1 2 2 2 1 2 2 2 1 2 1 1 1 2 2 1 1 2 4 4 3 4 4 4 4 4 5 6 8 10 10 11 13 12 11 12
31 28 21 29 36 51 52 30 11 6 4 3 5 2 2 3 2 2 3 2 3 3 2 1 2 2 1 0 3 2 0 1 1 2 2 2 3 3 3 3 2 2 4 6 8 9 10 12 12 11 15 15 14 14
24 17 39 48 47 39 28 12 6 5 3 3 3 2 2 3 2 2 3 3 4 2 2 2 2 2 2 3 2 3 1 1 2 3 2 3 2 0 1 3 3 4 6 7 8 8 9 8 10 14 12 13 14 14
44 52 53 49 37 24 14 10 4 4 5 4 3 2 2 3 2 2 4 4 3 2 2 2 2 4 3 2 1 2 2 2 2 2 1 1 2 4 4 3 2 4 6 6 6 6 7 9 11 9 11 11 13 13
42 44 37 27 18 9 4 5 5 4 3 2 2 2 3 3 3 3 3 5 4 6 3 3 5 2 1 1 0 2 2 0 2 1 1 1 3 5 5 6 8 8 8 7 6 6 6 6 5 6 7 8 11 10
31 26 21 19 12 6 4 3 4 4 3 1 3 3 2 2 1 2 6 6 4 3 5 4 2 0 1 2 1 1 2 2 3 2 1 1 3 5 5 7 9 9 10 10 9 9 10 9 6 5 7 9 10 10
22 16 15 12 6 9 3 2 4 2 3 3 3 2 2 2 3 3 3 4 4 3 2 2 1 2 6 6 8 8 7 7 3 1 1 1 5 8 8 6 7 7 8 8 10 9 9 8 6 7 8 9 10 11
9 8 5 8 5 4 4 3 4 3 3 3 2 2 3 2 2 3 1 5 3 2 1 1 1 1 4 5 7 12 10 12 12 11 10 7 2 4 6 7 8 8 8 7 7 8 7 7 7 9 10 10 10 11
8 5 5 4 5 4 1 2 3 2 3 2 2 3 2 2 1 1 3 2 2 3 5 5 7 11 9 10 12 16 13 11 9 9 9 10 11 10 9 8 7 9 7 7 7 8 9 8 9 11 11 11 11 11
5 5 4 3 4 2 2 3 2 3 2 3 2 2 2 2 2 3 3 2 2 4 4 5 6 3 5 9 5 8 11 8 11 13 10 9 9 10 11 10 9 7 6 7 6 7 7 8 8 8 8 9 9 9
6 7 4 4 3 5 4 3 3 4 3 2 3 1 1 2 3 2 2 1 2 2 2 8 9 6 2 1 5 10 11 11 12 7 11 8 9 11 12 12 11 8 3 5 6 6 6 7 8 8 7 8 8 8
6 4 3 1 2 4 2 3 2 4 3 3 1 2 3 3 4 1 1 3 2 2 2 5 5 2 3 6 2 8 7 5 9 12 12 9 7 8 7 6 6 9 6 2 3 6 7 8 8 8 8 7 8 9
4 1 2 3 1 4 4 3 2 4 3 3 1 3 3 4 2 2 1 2 2 4 9 11 12 11 8 9 8 8 9 8 10 12 11 13 13 12 11 9 7 7 6 3 1 1 4 5 7 8 8 7 7 8
3 2 4 4 4 3 5 3 3 2 2 1 3 4 5 7 3 3 3 9 15 15 15 13 11 9 9 7 4 5 7 9 12 13 14 14 13 11 9 8 7 7 6 3 3 3 2 3 5 6 6 7 7 6
3 1 4 5 5 4 4 2 2 0 1 2 4 3 3 2 1 3 11 19 18 18 17 15 13 10 10 9 9 7 6 13 7 4 3 2 5 9 9 6 6 7 5 5 4 2 2 2 4 4 4 4 4 4
1 2 4 3 4 3 2 1 0 2 2 3 3 4 3 5 8 11 18 16 13 12 12 11 12 5 7 7 9 11 11 7 3 2 4 2 1 4 5 5 5 5 5 4 3 5 6 5 6 6 6 5 4 3
2 3 4 4 4 2 2 1 8 7 4 4 3 4 3 2 5 10 9 12 13 13 13 11 8 7 6 5 4 4 4 6 7 6 5 3 1 2 3 4 4 4 4 3 3 3 1 3 3 4 4 3 3 3
3 2 4 4 1 3 2 3 2 3 2 3 2 2 3 3 2 2 2 12 12 10 7 7 10 10 8 6 6 7 7 6 4 2 0 1 2 2 2 4 4 4 2 2 3 2 1 3 4 4 3 2 2 1
3 3 4 4 3 1 2 4 3 2 3 2 0 2 2 4 4 5 1 9 10 8 10 10 11 12 12 10 9 10 9 8 6 5 5 5 5 4 2 2 2 2 2 2 3 3 3 2 3 3 2 2 2 3

GFSWCAN_925_spd_108.txt.gz
Wind_Speed
29 31 30 29 28 34 33 28 24 23 23 21 18 17 16 16 15 20 12 15 16 2 5 5 4 5 2 2 2 4 5 3 4 5 3 3 3 4 4 3 2 1 0 2 1 2 6 1 4 2 3 3 6 2
27 33 30 30 27 29 32 29 24 22 21 22 18 18 18 16 16 19 6 16 21 4 5 5 14 24 23 18 2 3 3 1 2 2 2 2 2 2 6 2 2 1 3 3 5 4 3 2 3 4 5 1 2 6
30 31 33 34 32 31 35 32 27 22 19 19 18 18 19 18 16 20 14 12 12 3 8 7 10 28 27 31 25 3 2 3 1 0 1 2 4 1 3 3 4 3 4 3 2 2 4 7 6 6 8 11 10 10
29 28 33 32 32 31 32 32 30 25 21 19 18 18 18 18 16 17 15 15 10 2 3 5 7 11 10 17 27 30 8 4 2 2 2 2 3 2 3 4 6 3 6 6 3 4 3 8 11 5 7 14 15 11
33 33 30 29 30 27 29 31 32 28 22 19 18 18 16 16 15 14 17 18 19 5 2 4 13 26 20 20 24 25 15 3 2 2 3 2 3 3 3 3 2 4 5 3 2 8 4 9 12 8 10 13 11 11
32 31 31 29 28 27 27 29 33 28 23 18 18 19 17 16 14 9 2 18 27 22 3 3 4 5 1 8 13 12 11 3 3 3 3 3 3 1 3 3 8 7 4 8 3 7 11 6 13 13 12 13 12 10
30 31 28 26 26 26 26 26 29 27 23 18 19 18 15 16 18 7 4 1 16 23 2 3 4 3 2 5 3 3 9 3 3 3 3 2 3 2 2 3 6 8 7 9 13 6 6 13 5 10 12 10 12 13
24 25 25 24 23 24 27 26 26 24 19 18 20 19 17 15 14 19 31 12 14 8 2 2 4 4 4 2 2 3 3 3 3 3 2 3 2 2 3 3 7 9 7 10 9 11 8 8 12 13 14 11 9 7
29 28 26 25 21 24 27 28 25 21 18 19 18 15 11 11 7 7 9 11 13 6 2 3 2 3 1 1 2 2 3 3 2 3 3 3 3 4 3 5 7 9 7 10 5 10 10 11 11 12 12 11 7 5
29 28 26 24 26 25 24 24 22 20 20 18 13 5 3 8 16 18 8 3 3 4 3 3 1 2 3 4 2 1 3 3 3 4 3 3 3 6 7 7 7 9 9 10 7 8 11 10 10 10 10 8 7 7
27 26 24 23 25 24 22 22 22 22 19 7 4 3 7 26 8 2 3 4 3 2 3 3 6 3 2 2 2 3 1 3 2 3 4 3 2 3 6 8 7 8 8 8 8 7 7 8 9 8 7 8 10 10
24 24 24 23 24 24 22 23 24 23 12 14 8 8 8 3 2 3 4 4 4 4 3 4 4 4 2 2 3 3 3 3 4 5 3 2 2 5 6 6 7 6 7 8 12 10 11 10 11 11 9 10 10 9
26 26 24 25 25 25 27 26 25 23 16 12 4 3 3 1 4 6 5 3 4 2 3 3 3 3 1 2 3 3 4 4 6 2 2 2 4 5 5 6 6 9 9 10 10 10 11 11 12 12 10 13 10 11
28 27 27 27 26 26 26 27 29 25 11 4 4 6 4 4 4 3 1 2 1 1 3 2 1 2 2 3 1 2 2 2 2 3 2 1 4 5 5 5 6 7 8 7 7 9 10 9 9 11 12 11 10 10
29 28 27 26 26 27 27 30 27 17 3 2 2 4 3 2 1 1 1 2 2 1 1 2 1 1 2 1 1 2 2 2 2 2 1 2 5 4 4 4 3 4 4 4 6 7 8 8 9 11 12 11 11 11
30 24 26 27 29 27 25 25 14 3 3 3 5 3 2 3 2 3 3 2 3 3 2 2 2 2 1 1 2 2 1 1 1 2 2 3 3 3 2 2 2 3 5 6 6 7 8 10 10 10 14 14 13 12
37 8 25 25 42 45 30 12 5 5 3 4 2 3 2 3 2 2 3 3 4 2 1 0 2 1 1 3 2 3 1 1 2 2 2 2 2 2 1 2 2 3 5 6 7 8 8 8 10 13 11 11 12 12
25 36 46 52 44 25 9 7 4 4 5 3 3 2 2 2 2 2 3 3 3 2 2 2 2 4 2 3 1 1 2 2 2 2 1 2 2 5 7 6 5 5 4 5 6 7 8 9 10 8 8 8 11 11
47 52 52 39 19 9 4 5 5 4 3 2 2 2 3 2 3 2 3 4 4 6 3 3 5 2 1 1 1 1 1 0 1 0 1 3 2 3 5 6 6 6 5 4 4 5 6 7 6 5 5 7 11 10
37 30 21 16 8 6 4 3 4 4 3 1 2 2 3 2 1 2 5 5 3 3 5 4 2 0 1 1 1 1 1 1 2 2 2 3 2 3 4 4 6 7 9 8 8 6 7 7 7 7 7 7 10 11
27 19 20 15 6 9 4 2 3 2 3 3 2 2 2 2 3 3 3 3 4 3 2 2 1 1 6 5 9 7 9 8 2 1 1 1 3 5 6 5 4 4 4 6 7 7 7 7 5 5 7 9 10 10
7 8 5 8 5 4 4 4 4 3 3 3 2 2 3 2 2 2 2 4 3 1 1 2 1 1 4 4 6 11 9 11 10 10 9 6 2 3 4 5 5 5 4 4 4 5 5 5 6 8 9 10 10 10
9 8 6 5 5 4 0 1 4 2 3 2 2 3 2 2 1 1 3 2 1 2 6 5 7 10 8 9 11 14 12 10 9 9 9 10 10 9 8 7 4 6 6 4 4 5 6 6 7 8 8 9 10 10
6 5 4 3 4 2 2 3 2 3 3 2 2 3 2 2 1 3 3 1 1 3 4 5 5 3 6 9 5 8 10 8 12 13 11 9 9 10 10 9 8 6 4 4 5 6 6 7 7 7 8 9 8 9
6 6 4 4 3 5 4 3 3 3 2 1 3 1 1 2 3 2 2 2 1 1 2 6 8 6 3 0 4 8 9 7 10 8 10 7 7 8 9 10 11 10 5 3 4 4 4 4 6 6 6 6 7 7
6 4 3 1 2 4 3 3 2 4 3 2 1 2 2 3 3 1 2 3 2 3 3 4 5 3 3 4 1 4 5 6 9 12 10 9 8 6 6 6 7 11 10 7 3 2 4 5 5 5 5 4 5 6
4 1 2 3 1 4 4 3 2 4 3 3 2 2 3 3 2 3 1 2 2 4 6 9 8 10 9 7 7 8 7 5 8 11 10 11 12 12 11 10 8 9 8 6 5 3 1 2 4 5 6 5 4 4
2 2 4 2 4 3 4 3 3 2 2 1 3 3 5 6 4 3 2 6 15 16 14 12 10 8 7 5 5 8 9 11 13 13 13 11 11 10 9 9 8 7 8 6 4 5 4 2 2 3 3 3 3 3
3 1 3 5 4 4 3 2 2 0 1 2 4 3 3 1 1 2 8 19 17 17 17 15 12 10 10 9 7 4 7 11 5 4 2 2 5 7 8 8 8 8 8 7 5 3 3 3 4 3 3 3 2 2
1 1 4 3 4 3 2 1 1 2 2 2 3 3 3 3 5 12 18 17 16 14 12 11 12 5 5 5 8 10 9 3 4 2 3 3 1 4 6 6 7 7 7 8 6 4 3 3 4 4 4 3 2 1
1 3 4 3 3 1 2 2 3 4 3 3 3 4 2 1 4 4 10 10 9 11 12 11 7 4 4 4 3 3 4 5 6 6 6 4 3 3 4 5 5 5 5 5 5 3 1 1 2 2 2 2 2 1
3 2 4 4 1 2 2 2 2 3 3 3 2 2 3 3 1 2 4 11 12 10 7 6 6 7 5 4 5 6 6 5 3 3 3 3 3 3 3 4 5 5 5 5 4 3 3 3 3 2 1 1 1 2
3 2 3 4 3 2 2 3 3 2 3 2 1 2 2 4 4 5 5 12 10 6 9 9 11 12 12 10 9 9 8 6 5 5 5 6 7 7 5 3 3 4 5 4 4 4 3 2 2 1 0 1 3 3

GFSWCAN_925_spd_114.txt.gz
Wind_Speed
18 17 17 20 20 24 27 31 36 34 30 26 26 23 21 22 24 20 12 15 11 4 6 6 7 10 9 6 7 2 5 2 3 3 3 3 3 4 5 8 8 5 5 2 4 3 4 20 10 10 12 15 7 11
21 21 22 20 21 23 21 34 37 32 31 28 27 23 22 21 25 22 7 12 12 2 4 3 10 18 19 15 8 3 5 3 3 4 2 3 6 4 7 4 1 3 6 6 5 6 12 13 12 13 14 4 8 7
23 24 22 21 20 23 25 27 33 32 33 29 28 24 21 22 23 23 11 11 9 2 6 11 11 15 19 23 17 5 3 4 1 2 3 2 4 4 5 5 6 4 9 3 7 4 10 12 14 13 12 13 10 12
24 22 22 22 21 21 25 32 35 34 30 29 27 24 22 21 21 22 13 14 9 2 3 3 4 10 9 14 20 25 17 3 2 1 3 4 4 4 6 9 10 6 6 11 10 9 10 14 14 13 12 12 13 13
24 23 23 21 22 21 25 29 36 36 30 29 26 26 21 19 20 21 12 13 13 6 2 4 14 16 16 15 16 19 17 11 6 3 3 5 5 6 6 5 5 2 3 4 3 8 2 7 11 11 11 11 11 10
25 24 23 23 23 22 24 30 30 37 31 27 28 25 23 21 23 12 3 14 15 13 3 3 3 5 1 10 14 14 13 7 3 3 4 4 8 4 3 3 6 4 3 4 4 4 9 6 13 10 11 9 9 8
26 25 21 24 24 24 31 33 34 36 31 27 27 24 22 24 23 6 1 3 18 14 2 3 3 3 5 7 5 4 9 3 3 3 4 7 7 4 4 10 2 6 6 7 10 7 2 11 7 11 7 7 10 10
26 24 22 25 24 22 33 37 39 36 31 27 24 22 22 24 12 6 6 5 19 5 3 3 3 3 8 4 4 5 5 4 5 4 3 5 3 4 4 5 5 6 2 9 6 7 4 5 7 10 12 7 7 8
24 22 25 26 22 25 34 37 40 35 31 26 24 23 19 7 5 6 9 6 6 4 2 3 3 1 4 3 2 4 5 4 4 5 4 4 4 5 3 3 5 7 5 7 2 6 6 7 8 9 9 9 7 7
24 28 29 26 28 32 36 39 40 36 32 28 25 5 3 7 13 16 8 4 4 3 3 3 4 3 4 4 4 2 4 4 4 6 4 4 4 7 7 6 5 6 6 8 4 6 8 8 8 8 8 7 8 7
28 28 30 34 34 36 39 35 42 39 33 12 4 3 5 23 8 3 4 5 5 4 5 4 10 9 5 5 4 3 2 2 3 4 4 4 3 3 4 5 6 6 6 7 5 4 6 6 7 7 6 8 9 10
30 28 40 42 38 38 41 37 44 25 17 13 10 10 11 4 4 6 6 4 6 5 5 4 4 5 4 4 5 3 3 4 4 7 3 2 3 4 4 5 6 7 7 6 7 6 7 8 8 6 7 8 8 8
38 43 41 40 38 39 39 44 30 26 18 9 3 3 4 3 5 5 8 4 4 4 5 5 4 4 4 4 3 3 5 4 5 4 1 3 6 4 4 3 5 8 9 8 8 8 8 7 8 9 8 10 8 6
35 33 34 36 38 38 42 37 23 21 7 2 5 6 4 4 5 3 5 3 3 3 6 6 4 3 3 3 2 3 1 1 4 5 2 3 6 5 4 4 4 6 7 7 8 8 7 7 8 8 8 7 6 7
34 35 37 37 37 37 36 28 21 11 3 2 3 2 3 3 3 3 4 4 3 2 4 3 2 3 3 3 3 3 3 2 3 3 3 4 5 4 4 4 4 4 4 5 6 6 6 7 7 9 10 10 9 8
36 32 27 32 31 31 32 24 11 4 2 2 4 2 2 3 3 2 3 4 3 2 0 1 2 3 4 2 3 1 2 1 3 3 4 5 5 4 3 3 4 4 5 5 6 6 6 6 7 7 8 9 9 9
24 11 28 30 28 30 27 7 5 2 2 1 2 3 2 3 3 3 2 2 3 2 2 2 4 1 1 3 3 2 2 3 6 5 4 5 5 4 3 3 3 3 4 5 5 6 6 5 4 5 7 8 7 7
12 27 31 33 33 25 5 5 3 3 3 3 1 3 3 3 3 3 3 3 2 1 1 1 1 1 0 2 3 3 4 5 5 4 4 5 6 6 6 5 5 4 4 4 4 4 5 5 4 5 5 5 4 5
25 34 35 37 24 7 3 2 2 3 3 3 3 3 3 3 4 3 2 3 5 4 2 2 3 2 2 2 4 4 4 3 4 4 4 5 5 5 5 6 5 4 3 2 2 4 5 5 5 4 4 3 2 2
29 34 33 29 11 4 3 3 4 3 3 3 2 3 3 3 2 3 5 4 3 2 4 3 2 2 3 4 3 3 2 2 4 4 4 4 5 5 4 3 3 3 3 3 3 1 2 3 3 3 3 2 1 3
27 30 28 17 5 4 3 3 3 2 4 3 4 1 3 2 2 3 3 3 3 3 3 3 4 5 7 7 7 6 7 5 3 2 3 4 5 5 4 4 3 3 3 2 2 3 2 3 3 3 3 4 3 3
19 26 7 5 3 3 3 3 4 4 3 4 3 2 2 2 2 2 1 4 3 3 2 4 4 5 5 5 8 8 7 8 8 8 8 6 3 4 4 3 3 4 4 3 3 3 3 3 3 3 3 4 4 4
22 12 5 4 4 3 4 1 3 2 3 5 3 3 2 2 2 1 3 3 3 3 6 7 8 9 10 9 9 10 9 7 7 7 7 7 6 5 5 4 4 3 3 4 3 3 3 3 3 3 4 3 4 4
7 6 4 3 4 4 2 2 2 3 3 3 3 3 2 2 2 2 3 2 3 7 6 8 8 6 7 6 5 6 6 6 8 8 6 5 6 6 5 5 5 5 4 3 2 2 2 2 2 2 2 2 3 3
3 5 2 4 2 3 3 3 2 2 2 2 4 3 3 3 2 2 3 4 6 5 4 5 4 3 4 4 5 5 4 3 5 6 6 4 4 4 4 4 5 6 5 2 2 1 1 1 1 1 1 1 2 2
5 4 3 1 2 2 3 4 4 4 3 3 2 3 2 2 2 3 4 7 6 5 5 4 5 5 4 4 4 5 5 4 4 5 5 4 3 2 1 1 1 3 7 5 4 3 2 2 2 2 1 2 2 2
4 2 2 2 2 4 3 2 2 2 3 4 4 5 4 4 3 3 4 5 5 8 8 7 6 6 8 8 6 5 3 3 4 7 6 5 6 5 4 2 3 4 6 5 5 4 3 2 4 4 3 2 3 3
3 1 4 2 3 3 3 2 2 3 2 2 5 4 6 3 3 4 3 7 13 13 11 10 9 9 9 8 8 8 8 8 10 8 7 5 5 4 4 3 4 5 5 5 4 3 3 2 1 2 3 3 3 2
3 2 3 3 2 3 2 1 2 2 1 2 3 3 3 2 2 4 7 13 13 13 12 10 7 7 7 7 6 5 7 6 4 1 1 2 1 0 3 3 4 4 5 4 5 4 2 2 2 3 3 2 2 2
2 1 3 3 2 2 2 1 2 2 2 3 3 3 3 3 3 5 12 13 12 10 10 10 10 8 8 7 6 4 5 6 4 3 3 2 1 0 2 3 3 3 3 4 3 1 2 2 3 3 3 3 2 1
1 2 3 3 3 2 3 3 3 3 2 3 2 3 4 3 4 4 7 7 10 13 12 10 6 6 7 6 6 6 5 3 5 4 4 3 1 1 1 3 3 3 3 3 2 1 0 1 2 2 2 3 3 2
1 2 3 3 3 5 2 1 1 2 2 2 2 2 2 3 5 7 9 11 11 10 9 10 8 8 8 6 6 5 5 8 6 4 3 2 1 1 1 1 2 3 3 3 3 2 2 3 3 2 2 2 2 1
3 2 2 4 5 6 4 3 2 3 2 2 2 2 2 3 4 5 13 14 10 10 10 10 8 11 11 10 10 10 10 9 8 7 6 6 5 4 4 3 3 2 2 2 2 3 3 3 3 2 1 0 1 2

GFSWCAN_925_spd_117.txt.gz
Wind_Speed
18 14 17 18 17 20 30 29 30 35 35 33 32 28 27 24 24 23 12 14 11 4 4 4 7 7 6 5 6 3 5 5 6 6 5 4 4 4 5 8 5 5 7 3 6 4 3 24 12 10 12 19 14 2
20 20 14 15 19 18 21 25 31 36 34 34 31 29 28 23 23 26 7 11 13 6 3 7 8 12 14 14 6 2 6 0 3 4 3 4 6 5 11 5 7 2 4 5 6 11 14 15 14 16 14 14 13 13
21 20 20 19 18 18 20 22 27 36 39 36 31 30 26 23 24 27 10 11 6 2 7 12 12 17 18 18 13 8 5 3 1 1 4 3 4 5 6 5 8 10 8 4 14 6 12 14 15 15 13 13 13 15
24 23 22 20 19 20 20 22 23 34 40 35 32 30 24 25 26 27 12 12 9 3 3 3 4 10 9 12 16 19 15 3 3 3 4 4 4 7 5 10 9 5 8 11 11 10 12 15 13 14 13 13 12 14
25 23 22 21 20 22 21 22 23 24 33 33 32 28 26 26 25 23 14 12 14 7 2 4 8 14 14 13 14 16 16 11 7 3 3 5 7 7 7 7 6 3 1 4 5 8 7 8 11 14 12 11 11 11
26 24 23 22 22 24 21 22 30 31 30 32 31 27 28 27 24 13 2 12 15 11 2 3 2 5 6 9 16 13 13 6 3 3 3 4 12 6 4 4 5 5 5 2 3 9 3 10 7 13 8 9 9 8
28 25 24 23 22 21 20 23 28 33 37 32 30 28 27 26 27 9 1 3 19 11 2 3 3 4 6 9 5 4 7 3 3 3 5 9 10 4 3 7 9 7 3 3 4 7 2 8 6 10 11 6 4 7
29 27 26 24 24 22 19 22 25 41 34 32 29 27 24 24 17 9 2 4 15 5 3 3 3 6 11 3 3 4 3 3 4 4 4 6 6 4 4 7 7 5 4 3 5 4 3 6 6 7 11 12 7 8
32 29 28 24 24 24 24 25 35 38 30 29 28 24 19 12 5 8 9 15 11 2 2 4 3 4 6 4 2 4 4 4 4 6 7 5 6 5 4 5 5 5 4 6 7 3 8 8 9 10 9 10 10 9
31 29 27 24 24 27 22 39 44 40 34 32 30 6 3 11 14 19 6 5 4 3 3 3 7 3 6 5 6 3 4 4 4 7 5 5 8 8 6 5 4 4 5 7 6 5 8 7 8 10 9 9 8 9
31 27 25 25 26 26 36 47 43 39 37 17 5 3 17 24 10 5 3 4 5 4 5 5 10 7 5 4 4 4 2 3 3 5 5 4 3 4 4 5 4 5 6 6 6 5 6 7 7 8 8 10 12 12
26 25 27 27 23 30 45 48 47 27 17 13 12 14 13 5 3 5 5 5 6 5 8 5 4 6 4 3 3 3 3 3 5 7 3 2 4 5 5 5 5 6 6 6 8 7 8 9 10 9 9 9 9 9
28 29 26 28 33 41 46 51 34 28 26 14 4 4 3 5 7 6 10 4 5 5 5 6 4 3 4 4 3 2 5 5 4 4 1 4 7 5 4 4 5 7 7 7 8 9 9 9 11 12 10 11 11 10
29 32 32 36 43 37 49 36 32 27 8 4 5 6 6 6 5 4 6 7 3 4 7 6 4 4 4 4 2 4 4 3 3 4 3 4 7 6 5 4 4 5 6 6 7 8 8 7 8 9 10 11 10 11
40 38 38 40 39 43 32 30 25 11 3 2 2 5 5 3 5 4 4 4 3 2 6 4 3 3 4 3 3 4 4 2 2 3 2 6 6 5 4 4 4 3 3 4 5 6 6 6 6 7 8 8 9 8
40 39 35 41 46 34 32 24 11 3 3 2 3 2 2 4 4 3 4 4 1 1 2 1 2 3 5 3 3 1 4 3 3 4 5 6 6 5 4 3 3 3 4 4 5 6 6 5 6 6 6 7 7 7
29 16 38 42 37 31 24 14 3 3 1 3 1 2 4 3 5 4 3 3 2 2 3 2 4 1 1 2 2 3 3 4 6 5 6 7 6 5 4 4 3 2 3 4 4 5 6 5 4 5 6 7 6 6
33 38 39 36 32 24 10 4 3 2 1 2 2 3 4 3 2 3 2 3 2 1 1 1 2 2 2 1 3 3 4 6 6 6 6 6 7 6 6 6 4 3 3 3 2 1 2 4 2 5 3 4 1 2
35 37 37 33 21 6 3 2 0 2 3 2 3 2 3 3 3 2 2 3 4 3 1 0 1 1 2 3 4 5 5 4 5 6 5 8 7 7 6 5 4 4 4 4 6 6 6 4 5 6 5 5 6 6
35 36 32 17 4 2 3 3 1 3 2 3 2 3 2 3 2 2 3 3 3 1 3 2 3 3 3 4 4 4 4 3 5 5 5 5 6 4 5 4 5 2 2 1 2 3 2 2 5 6 6 6 6 6
33 29 16 4 4 6 3 2 3 2 4 2 4 3 3 2 2 2 2 1 2 2 2 3 5 5 9 8 8 7 8 7 4 5 5 5 5 4 4 3 2 3 3 3 3 3 3 5 5 5 5 5 5 5
17 19 5 4 3 3 3 3 3 4 2 4 4 2 2 2 2 2 1 2 3 3 2 4 5 6 6 6 9 9 8 8 8 8 9 7 3 3 4 3 2 3 3 4 4 4 4 4 4 3 3 3 3 4
17 4 4 3 2 1 3 3 2 4 3 5 4 3 2 2 2 2 2 2 3 3 6 8 9 10 11 9 9 9 6 6 7 7 6 6 5 4 4 4 4 3 2 3 3 3 3 2 2 3 2 1 1 2
10 4 2 2 3 4 3 3 3 3 3 4 4 3 3 3 3 2 2 2 4 9 6 10 10 6 7 5 5 6 6 6 7 6 4 4 5 5 4 4 4 5 5 3 3 3 2 2 2 2 2 2 2 2
4 3 4 4 4 4 5 5 4 3 3 3 4 3 4 4 3 3 4 4 7 6 6 8 7 4 4 4 6 6 1 2 4 6 4 4 3 3 3 3 4 5 5 5 4 2 2 2 1 2 2 2 2 2
2 2 1 2 3 2 4 4 6 5 4 4 3 3 3 3 4 2 3 7 8 7 6 6 5 5 5 6 5 7 6 3 3 5 3 3 3 3 2 2 1 5 6 6 6 7 4 2 2 2 2 1 1 3
3 2 2 2 1 3 3 2 3 2 4 4 4 6 4 4 3 3 4 8 6 11 9 8 7 6 8 7 7 6 5 4 5 7 5 4 4 4 4 4 4 4 5 6 6 6 7 6 4 4 3 1 1 2
3 1 3 3 2 1 2 2 4 4 3 2 5 5 4 2 3 3 5 10 14 13 12 10 9 10 10 9 9 8 8 7 8 7 6 5 4 4 4 3 3 5 4 5 5 5 5 5 5 3 2 2 2 1
2 2 3 3 2 2 1 1 2 2 2 2 3 3 3 3 2 5 11 14 15 14 13 12 10 10 10 9 7 6 7 6 4 2 1 1 1 3 3 3 3 4 4 4 4 4 4 3 4 3 3 3 2 2
2 1 3 2 2 2 2 2 2 2 1 3 3 3 3 4 2 4 13 14 13 11 11 11 11 10 10 9 8 6 3 3 2 1 2 1 3 1 2 3 3 3 3 3 3 2 2 1 1 1 1 1 2 1
1 2 3 2 2 2 3 4 5 4 2 2 1 3 5 4 5 5 9 9 10 12 12 12 10 9 8 8 7 7 5 3 4 4 4 3 3 1 1 2 2 2 3 3 3 2 2 1 1 1 1 2 2 2
2 2 3 3 3 4 4 3 3 2 3 3 3 3 4 4 5 8 10 11 13 13 11 11 10 10 8 6 6 6 7 9 6 4 4 3 2 1 1 1 2 2 3 3 3 2 0 0 0 1 1 1 2 2
3 2 3 3 4 5 4 4 4 3 3 4 4 5 4 4 4 4 11 14 13 13 13 11 9 11 10 9 9 9 9 8 8 7 6 5 5 5 4 3 3 3 3 3 3 2 2 1 1 1 1 2 3 3

GFSWCAN_925_spd_120.txt.gz
Wind_Speed
14 13 13 15 13 25 27 31 32 31 31 32 28 28 25 21 21 20 14 8 9 3 9 6 8 7 6 3 7 3 4 4 5 6 6 6 4 4 5 8 7 6 6 4 6 7 4 23 10 8 9 14 15 15
16 17 15 14 16 13 19 29 33 30 31 31 28 28 26 22 22 23 9 9 11 6 4 10 13 12 12 13 6 3 4 1 3 4 4 4 5 4 9 5 8 2 5 5 6 4 5 11 7 12 13 10 11 13
16 16 17 12 12 14 14 17 27 29 31 31 32 30 27 23 22 26 16 8 5 2 7 11 11 15 15 15 12 6 4 2 3 2 3 3 4 5 5 4 3 9 9 4 10 10 12 13 14 14 13 13 11 14
18 17 16 16 13 12 15 15 15 29 33 31 33 30 27 25 23 23 17 9 8 3 3 4 9 9 8 14 14 13 13 8 5 2 2 3 4 6 6 7 9 3 4 6 8 11 5 12 13 13 13 13 14 12
21 20 18 17 15 14 13 15 15 16 27 36 34 30 28 26 22 21 18 9 11 7 2 5 7 13 11 12 12 13 13 9 6 4 3 5 7 6 7 7 4 3 1 1 3 4 4 7 8 13 11 11 10 11
23 22 21 19 17 15 16 16 19 20 21 34 29 27 27 22 23 16 3 12 13 9 3 3 5 5 8 16 16 11 11 7 5 2 3 4 11 5 4 4 5 5 2 1 2 5 5 5 3 11 9 7 6 6
25 23 22 21 18 17 19 19 19 19 24 34 31 26 23 22 24 8 1 1 18 11 2 3 3 6 12 6 6 5 5 3 4 3 5 8 9 6 4 9 9 8 5 3 4 1 2 4 4 4 9 13 3 9
28 26 24 22 20 19 22 20 19 23 28 28 27 25 23 21 20 7 2 5 14 5 3 3 3 3 7 4 4 2 3 3 3 4 5 6 6 6 4 8 9 7 5 2 4 1 1 4 5 6 10 13 10 11
28 28 25 23 21 20 22 20 21 29 30 31 28 24 17 13 7 6 9 9 5 1 2 4 4 3 7 4 2 4 3 3 4 5 5 4 5 5 5 8 6 5 3 5 7 4 7 7 9 10 9 10 10 10
30 29 27 26 23 23 21 19 21 33 35 34 30 5 3 8 16 17 5 4 1 3 3 4 5 3 6 6 6 4 4 4 3 6 4 5 7 10 8 8 6 3 5 6 6 7 7 7 8 9 10 9 10 10
30 30 27 28 23 24 20 17 32 40 40 14 5 4 17 26 8 3 3 4 5 4 5 6 9 6 5 5 5 5 3 3 3 4 6 5 3 4 8 8 5 6 6 7 7 7 8 8 8 8 9 12 12 12
30 29 29 27 25 26 22 36 50 30 19 13 15 19 14 4 2 4 5 4 6 6 7 6 6 7 3 3 3 3 3 3 5 4 3 2 4 7 7 7 7 8 8 8 10 9 10 10 11 10 10 11 11 9
31 30 26 24 29 29 26 48 35 27 32 23 5 3 4 4 6 6 9 5 5 4 4 5 3 1 2 3 1 1 4 5 4 3 1 3 7 6 6 6 7 10 10 10 11 11 10 10 10 10 9 10 11 10
29 25 26 30 27 25 47 40 34 30 15 3 4 7 5 6 6 6 7 7 2 4 6 6 3 3 3 3 2 3 3 2 3 3 4 4 8 7 6 6 7 7 8 8 10 10 10 9 9 9 9 9 8 9
28 27 26 22 33 51 46 33 29 12 4 2 2 5 7 1 4 3 3 3 2 4 6 4 2 3 2 2 3 3 3 3 4 2 2 6 7 7 7 7 7 5 3 6 7 7 7 8 8 8 8 9 10 9
29 26 17 50 49 45 34 28 13 4 3 2 1 4 2 4 2 2 4 3 3 2 3 3 3 3 5 3 4 3 5 4 3 4 6 7 8 7 7 6 7 6 6 7 7 6 5 3 4 3 5 7 7 8
27 16 47 41 39 35 26 16 7 3 2 1 1 2 4 3 4 3 3 3 5 2 2 2 3 4 0 3 3 4 3 4 6 6 7 8 7 6 6 7 6 4 6 5 4 3 3 2 3 4 5 5 3 4
40 44 42 39 33 26 11 4 2 2 2 2 2 3 3 4 2 3 2 3 2 2 2 1 3 2 2 5 3 3 4 6 6 7 6 6 8 9 8 8 6 6 6 1 2 3 4 9 3 5 3 4 4 1
41 41 36 30 19 8 3 1 1 2 3 2 2 2 2 3 3 2 2 3 3 3 3 2 1 1 3 3 4 6 5 5 6 6 6 9 8 7 5 4 6 6 5 6 7 6 4 3 5 7 8 7 6 6
39 35 27 15 8 3 3 2 1 3 2 3 2 2 2 3 1 2 2 1 1 1 2 2 3 3 3 5 5 5 5 6 6 6 6 6 7 5 6 6 5 1 2 3 4 5 4 5 7 7 6 7 8 8
28 16 14 7 5 6 3 2 2 2 2 2 4 3 3 2 2 1 2 1 2 2 2 3 5 6 10 10 9 9 11 10 6 5 7 6 6 6 5 4 3 5 5 5 4 5 6 7 7 6 6 7 6 6
10 11 4 5 3 2 3 4 3 4 2 3 3 3 2 2 3 2 2 2 2 2 2 5 6 6 6 6 9 9 8 9 9 10 10 7 3 5 6 6 5 5 6 6 6 5 6 7 5 5 5 4 4 6
12 4 3 1 1 2 2 2 2 4 3 4 3 3 2 2 2 3 2 2 3 3 8 10 11 13 12 9 9 7 7 8 8 8 7 7 7 6 6 6 6 7 6 6 5 6 6 3 4 5 3 3 3 1
7 3 0 1 1 3 2 2 2 2 3 3 3 2 3 2 3 2 2 3 4 8 6 10 12 7 9 8 6 7 7 8 8 7 5 5 7 6 6 6 6 6 6 4 3 3 4 4 4 3 4 4 3 4
3 2 1 2 0 3 3 3 3 4 3 4 3 3 3 3 3 3 3 4 7 6 7 11 10 8 6 6 8 6 0 2 7 7 5 5 4 5 5 5 5 5 6 9 8 6 1 1 2 4 5 5 6 4
3 2 2 5 3 4 4 4 5 5 3 4 3 3 2 3 3 3 2 7 6 8 6 7 6 5 6 10 7 9 6 3 5 8 5 4 5 6 4 1 7 7 6 6 7 8 9 3 2 2 3 2 2 3
4 4 3 2 2 1 1 1 3 2 5 4 3 5 4 3 4 3 4 7 7 14 12 10 9 9 10 12 11 10 7 5 8 10 8 6 6 6 6 8 7 5 4 5 6 7 7 8 8 5 4 1 3 2
1 3 4 4 2 1 3 3 4 5 3 1 5 5 3 2 2 3 3 11 16 14 12 9 8 11 12 12 11 10 9 8 9 9 8 6 5 5 5 3 3 5 2 3 4 6 5 7 7 6 5 6 6 3
2 2 3 2 2 2 2 2 2 2 3 2 3 3 2 3 2 5 12 15 15 15 14 13 11 13 13 11 10 9 9 8 7 4 2 2 10 6 3 2 2 3 3 4 1 4 4 2 4 6 6 7 5 4
2 2 2 2 3 3 2 3 2 2 2 3 2 3 3 2 1 1 14 14 14 13 14 14 14 14 13 12 10 7 3 3 3 1 1 2 6 5 3 2 2 2 2 3 4 3 2 3 4 1 2 3 6 6
1 2 2 2 2 2 3 3 2 2 1 1 2 2 4 3 3 2 10 12 11 15 15 14 13 12 13 11 12 11 8 4 7 7 6 6 5 4 3 2 1 1 2 3 3 4 4 4 2 3 4 5 4 6
2 2 3 3 2 3 4 4 4 4 4 4 3 2 4 5 5 8 6 10 15 14 14 14 13 13 11 11 11 9 9 12 9 8 7 6 5 4 3 2 2 2 2 2 3 3 2 3 4 5 5 3 3 4
1 2 2 2 3 4 4 3 5 3 3 4 4 6 8 6 5 3 13 15 15 15 16 15 14 16 13 12 12 12 11 12 10 10 9 9 9 9 6 3 2 2 3 3 3 3 3 3 3 3 3 3 3 4

GFSWCAN_925_spd_123.txt.gz
Wind_Speed
7 8 4 10 12 13 22 25 26 27 26 26 24 22 18 16 14 12 6 2 1 1 5 6 7 5 5 4 3 4 4 5 3 1 2 3 2 3 3 3 3 3 5 3 4 4 4 20 6 7 7 8 10 12
10 10 11 6 9 15 15 23 27 28 29 28 26 23 19 19 15 14 2 7 3 1 3 8 12 12 8 4 3 4 1 1 0 1 2 3 3 3 3 2 4 2 3 1 3 3 3 6 7 8 8 8 10 11
13 12 12 12 10 9 12 14 24 27 29 27 26 22 23 21 17 19 8 3 4 1 4 1 6 15 10 9 5 3 3 3 4 2 2 2 1 1 1 2 0 1 3 2 2 5 3 8 8 10 7 9 10 11
13 12 14 13 13 11 10 12 18 27 26 29 25 23 25 21 19 19 12 9 4 2 2 4 11 13 15 15 12 10 5 4 2 2 1 1 1 2 2 4 2 3 2 2 2 3 3 6 10 10 9 8 10 9
16 16 14 17 13 12 13 12 11 15 26 26 25 29 25 21 18 15 12 8 10 1 1 3 14 13 6 11 18 16 11 2 0 1 0 2 3 2 3 2 3 3 5 3 4 2 1 2 5 6 9 8 7 8
17 17 17 17 16 14 12 13 11 12 23 28 30 34 25 22 19 11 1 14 13 5 2 2 4 3 7 16 11 9 8 3 2 3 3 3 5 2 2 3 2 2 4 3 2 0 1 2 2 4 5 9 1 5
21 19 17 17 16 15 15 14 18 16 11 33 33 30 26 22 22 4 3 1 17 11 2 3 3 3 10 10 7 2 7 2 2 2 2 3 3 2 2 3 4 7 6 3 4 3 1 3 3 1 5 11 10 11
24 22 20 19 18 16 16 17 16 17 21 28 32 25 22 20 18 1 4 5 18 4 1 0 3 1 0 2 1 2 2 2 1 3 2 3 2 3 3 2 9 8 6 4 5 1 4 1 6 5 12 11 9 10
26 25 23 21 20 18 18 18 19 20 34 30 29 24 18 7 4 5 8 10 7 2 2 2 2 2 1 2 3 2 2 1 3 3 3 3 3 3 4 8 9 7 5 5 5 10 9 9 8 8 10 9 8 8
27 26 26 23 21 20 21 22 24 27 33 33 26 6 3 7 13 15 3 2 3 2 1 3 2 1 1 2 1 3 2 3 2 5 3 3 2 6 9 8 8 9 9 8 4 5 7 7 8 8 9 9 9 9
27 26 27 23 22 21 24 21 24 36 37 12 4 2 12 26 5 2 2 2 2 3 4 4 6 3 1 2 3 3 3 2 3 3 6 3 2 3 7 9 9 9 12 11 12 12 12 8 7 7 8 10 10 9
27 27 25 24 24 24 23 23 29 22 16 12 18 22 13 3 2 4 4 2 4 5 4 4 4 6 4 4 3 2 3 1 5 3 3 3 3 7 8 10 11 13 13 13 15 11 11 10 9 8 9 9 9 11
28 28 26 25 26 24 24 27 36 32 30 18 7 3 3 2 2 8 7 3 3 3 2 3 1 4 1 1 1 2 2 4 2 1 2 2 7 6 7 8 10 13 14 13 11 10 9 8 9 9 8 10 10 11
30 29 28 27 26 23 28 42 31 36 8 3 4 6 4 4 5 5 4 4 5 3 4 4 1 3 2 2 2 3 4 2 3 1 2 3 7 8 8 8 8 7 7 9 8 7 7 6 8 9 10 10 10 10
31 29 27 28 28 21 34 37 33 10 4 3 3 5 5 3 2 1 2 2 5 2 4 2 2 2 0 2 3 2 2 3 3 2 2 5 7 7 7 7 6 5 6 8 9 8 6 7 7 7 7 8 9 9
29 27 20 30 24 39 37 30 15 3 3 2 3 2 4 2 2 0 2 3 4 2 1 2 3 3 3 3 3 5 1 3 2 3 4 7 7 7 6 6 9 10 11 9 8 6 4 3 3 2 5 4 7 6
28 9 26 26 38 35 25 12 3 3 3 2 2 1 1 2 3 2 3 2 5 1 1 2 3 6 1 2 2 3 2 2 6 5 5 6 6 6 9 9 8 9 9 8 5 2 1 2 1 2 4 3 2 3
16 32 37 40 34 24 9 3 3 3 3 3 4 3 2 2 2 3 2 3 3 2 2 1 2 0 2 3 2 2 3 6 5 5 4 6 10 11 12 11 10 8 4 2 3 3 4 13 6 5 6 3 1 3
44 46 42 34 19 6 3 3 3 3 3 2 2 1 2 1 1 2 1 2 3 4 0 2 1 2 2 2 4 5 6 4 6 4 4 12 11 9 9 9 9 7 6 5 7 6 6 8 10 9 10 10 10 11
35 28 23 14 6 4 3 2 3 3 2 2 2 2 2 2 1 1 1 1 1 1 2 2 2 2 2 2 4 4 6 7 7 6 4 3 8 8 9 8 6 5 6 7 5 9 9 10 8 7 8 9 10 8
26 19 14 10 5 10 3 1 3 2 1 1 2 2 2 1 2 2 1 1 3 2 2 2 3 4 10 11 12 12 13 10 2 5 5 4 11 11 8 5 5 9 9 9 8 9 12 10 6 5 5 6 5 5
11 11 6 7 5 4 3 5 3 4 2 2 2 2 2 2 2 2 1 2 2 1 1 3 3 4 4 4 9 12 12 16 17 17 15 13 4 8 10 10 9 11 12 9 8 12 9 6 5 6 4 3 2 5
8 5 4 2 3 3 1 1 2 2 3 3 1 2 1 1 1 0 2 2 1 3 8 8 11 16 13 12 12 13 14 17 15 16 16 16 15 14 14 14 13 12 10 9 8 7 6 4 3 4 4 5 3 2
4 4 3 2 2 3 1 1 1 2 2 1 2 2 3 2 2 1 2 2 2 8 5 10 13 6 9 9 4 11 13 15 15 12 11 15 14 13 13 12 11 9 7 5 4 4 4 3 5 5 4 4 6 7
4 2 1 3 2 2 2 3 2 2 2 3 2 2 2 2 2 3 3 3 5 5 5 11 11 8 3 4 10 9 5 10 16 12 11 9 11 14 13 12 11 8 5 6 11 12 1 1 2 2 2 2 2 5
1 1 1 3 2 2 3 3 3 4 2 2 2 1 1 2 2 3 2 4 6 6 5 6 5 5 4 14 7 11 7 11 18 14 12 10 10 12 7 10 9 8 6 4 6 10 9 11 6 2 2 3 3 3
2 3 2 1 2 1 2 1 2 2 3 3 3 2 2 2 4 1 1 3 4 15 17 12 13 14 11 15 20 16 10 9 16 15 12 8 7 6 7 13 10 5 4 3 2 5 7 8 9 7 7 7 6 5
1 1 4 3 1 2 2 2 3 3 3 1 3 3 3 3 2 0 2 14 22 19 14 11 16 25 23 24 22 18 17 18 17 14 12 10 9 8 7 7 7 6 4 3 4 3 3 3 8 11 10 8 7 4
2 0 4 2 2 1 2 2 1 2 2 1 1 2 2 1 3 3 10 21 24 22 19 18 19 25 24 20 15 11 16 17 17 5 6 4 8 5 4 5 3 2 3 4 1 5 7 3 2 3 4 5 3 3
1 0 2 2 2 3 0 2 2 2 2 1 3 2 2 1 3 5 15 18 16 16 18 20 19 20 18 18 17 15 11 10 11 9 5 6 12 11 7 7 4 3 3 2 3 3 1 2 4 1 4 3 6 8
1 1 2 3 2 2 2 2 1 1 2 1 1 1 2 1 1 1 12 15 17 21 20 18 17 18 19 18 18 14 8 8 8 8 9 11 12 10 7 7 6 6 3 2 3 3 1 6 5 7 5 5 4 4
2 1 3 1 2 1 1 1 3 2 3 1 2 2 2 2 3 3 10 18 17 18 19 21 17 18 18 18 18 16 8 12 15 13 12 12 10 7 9 9 7 4 5 5 4 3 4 6 5 5 6 4 4 4
1 1 2 2 2 2 3 1 2 1 2 3 4 4 4 4 6 3 13 19 21 22 22 20 21 21 19 18 17 16 15 17 18 16 14 11 11 12 11 7 5 7 7 5 4 3 3 2 3 3 3 3 3 4

GFSWCAN_925_spd_129.txt.gz
Wind_Speed
4 6 7 12 24 27 26 25 24 24 23 22 21 18 17 16 13 13 13 15 6 3 2 4 2 4 3 3 4 3 3 4 3 3 2 2 2 1 1 1 1 2 1 1 1 1 5 4 3 4 5 8 10 10
5 4 9 8 12 26 27 28 25 24 24 22 22 19 17 16 14 13 8 13 13 5 3 2 2 4 5 3 5 3 3 2 3 3 1 2 1 2 3 2 3 1 4 3 5 4 1 2 0 4 6 6 7 8
5 5 7 12 10 14 24 27 28 26 23 22 21 19 17 14 12 10 13 8 8 3 3 3 3 2 5 3 5 4 1 3 3 3 3 2 1 3 2 3 1 2 2 2 0 3 4 3 1 3 6 4 6 8
7 7 8 9 14 11 14 25 32 30 24 23 20 19 16 14 14 14 11 9 7 4 3 2 4 2 4 10 4 7 9 6 6 3 2 2 2 3 2 2 3 5 1 4 4 1 4 4 1 3 6 5 4 5
9 8 11 11 13 15 13 22 26 31 27 23 21 20 16 17 16 15 15 11 10 5 3 1 5 4 7 13 10 12 12 4 2 2 2 2 1 1 0 2 3 4 6 4 5 3 4 3 4 1 5 7 3 6
12 10 11 13 15 14 17 15 28 27 31 28 25 22 20 19 18 12 3 1 4 5 3 2 4 4 5 13 13 9 8 3 2 3 2 2 3 3 2 2 3 3 3 5 3 4 4 4 5 2 2 3 5 6
14 13 12 13 17 17 17 19 17 26 35 30 24 23 23 20 13 6 4 3 10 4 3 2 2 3 3 6 3 3 3 2 2 2 2 2 2 4 2 3 3 6 4 3 2 4 1 2 3 3 4 5 7 8
18 16 14 16 17 18 18 19 22 23 28 29 28 28 25 18 12 6 5 11 13 7 4 3 1 2 4 2 2 1 2 1 0 2 1 2 0 1 4 6 3 5 7 6 2 5 4 8 8 7 7 4 4 5
21 19 18 18 18 18 19 19 22 29 31 33 34 30 21 6 3 5 14 16 6 4 3 2 3 3 2 2 2 2 2 1 1 2 2 3 2 4 2 2 3 7 4 9 8 9 8 8 6 5 4 5 3 4
23 22 21 21 19 19 19 21 21 29 43 46 34 7 2 5 23 16 4 3 4 3 2 2 1 1 3 1 0 2 1 2 1 4 2 2 3 5 5 7 8 7 7 5 3 3 3 4 3 2 3 4 4 5
26 24 24 22 19 20 19 19 27 40 45 12 3 2 14 20 4 3 2 3 1 2 2 3 4 3 2 3 3 2 3 1 1 3 4 3 2 3 6 10 9 11 11 10 10 9 7 5 2 1 2 4 5 7
28 25 23 22 20 20 20 32 48 23 9 12 19 18 6 3 3 4 2 1 2 3 3 4 4 3 3 2 2 1 3 1 3 3 2 3 0 8 8 8 7 8 9 9 8 8 7 6 5 4 3 4 6 6
29 26 24 22 20 18 21 41 29 30 44 24 6 3 3 0 4 6 7 4 2 3 3 3 1 4 1 1 2 3 3 4 1 1 3 2 5 5 6 7 6 7 8 8 8 8 8 8 7 6 5 6 5 7
30 27 24 22 20 20 41 29 35 31 9 3 3 5 4 4 4 4 4 4 4 3 4 4 2 3 2 3 2 3 3 1 2 1 4 4 7 8 5 5 6 5 6 7 6 7 7 7 7 8 8 7 6 6
30 27 23 20 22 25 28 22 17 8 3 3 3 4 4 2 1 2 2 1 1 2 4 3 2 2 1 3 2 2 2 3 4 3 3 3 8 7 6 5 5 5 6 6 6 7 6 5 6 6 7 6 8 7
30 25 15 22 24 24 26 20 6 3 3 3 4 4 2 3 2 3 3 2 0 3 2 2 2 2 2 3 3 5 5 5 3 2 3 7 7 6 6 5 8 9 8 7 6 5 3 2 3 3 3 4 5 7
21 6 23 24 21 25 24 7 3 2 3 3 3 2 2 3 3 1 1 3 1 2 3 2 5 6 2 2 4 2 4 3 4 5 2 4 6 6 8 10 11 9 8 7 5 2 3 2 2 4 4 2 3 4
12 27 24 22 25 18 11 2 2 3 4 2 3 1 2 1 3 0 0 1 2 1 1 3 2 2 4 5 3 3 2 2 2 3 3 4 11 15 14 12 10 9 9 7 5 4 9 8 5 3 3 4 2 3
30 27 25 29 23 6 3 2 1 3 2 2 2 2 2 1 1 1 1 3 2 3 1 1 3 3 3 3 3 2 5 2 4 2 2 11 17 15 13 12 11 9 7 5 7 7 7 6 6 4 4 6 6 6
27 23 25 30 12 3 2 2 3 4 2 1 2 1 2 2 1 1 0 2 2 2 1 1 3 2 3 3 3 3 4 6 8 5 2 1 13 16 15 13 11 10 9 7 9 8 7 4 3 3 2 3 4 2
22 19 18 12 3 1 3 2 3 2 2 2 2 2 0 2 1 0 0 1 2 2 2 3 2 1 1 1 8 15 14 16 6 4 6 4 11 15 13 10 9 10 9 7 9 9 5 4 3 1 2 1 3 2
7 25 9 10 2 2 3 5 3 2 2 1 1 2 2 1 0 1 1 2 2 3 3 3 2 2 2 3 5 14 19 16 14 16 17 18 4 7 10 11 13 9 12 13 11 9 6 4 3 2 3 3 3 2
6 5 4 4 5 4 1 2 3 1 3 2 1 2 2 1 1 1 1 2 3 3 4 3 6 7 12 12 15 16 18 21 14 16 19 16 16 14 13 14 13 14 11 12 10 7 6 4 4 3 2 2 3 5
7 5 4 3 4 2 1 2 2 2 2 2 2 2 2 2 1 2 3 3 3 2 1 5 13 5 7 9 3 7 12 18 19 18 22 21 14 11 14 15 14 12 10 11 11 8 7 4 5 6 4 4 2 2
4 5 4 3 2 3 2 2 1 2 2 2 2 0 2 2 1 2 3 2 3 1 2 8 7 5 4 2 6 10 15 23 17 12 16 21 19 16 14 13 10 8 6 10 11 11 9 7 7 7 5 5 5 5
4 3 2 2 1 3 3 2 3 3 2 1 1 0 2 2 0 5 3 3 3 3 5 7 6 3 2 11 6 8 16 20 23 16 15 20 23 22 17 13 10 6 8 7 8 7 7 9 8 11 8 7 5 5
1 2 2 1 0 2 2 2 1 3 2 3 3 2 3 2 4 3 1 2 2 9 19 21 18 14 11 14 17 19 20 20 21 16 13 14 18 17 16 20 17 10 9 6 5 6 6 5 4 5 6 7 7 4
2 2 2 2 2 1 3 1 3 4 3 1 3 2 5 7 4 2 3 2 6 15 22 22 21 21 24 23 21 24 21 18 19 18 15 11 8 7 10 13 10 10 8 5 4 4 3 3 3 4 7 8 5 2
1 2 3 2 2 2 2 4 3 1 1 2 4 3 3 2 2 2 1 6 14 20 17 16 15 18 21 23 23 26 27 27 22 6 5 2 4 7 10 10 10 9 10 8 5 4 7 6 6 5 5 4 3 2
2 1 3 1 3 3 3 2 2 2 1 2 2 1 2 2 2 3 7 15 17 15 21 23 23 24 20 22 21 21 25 25 23 19 8 6 14 14 15 12 10 9 10 10 8 7 6 6 7 7 6 5 5 4
1 2 2 2 2 3 3 2 3 1 2 1 2 3 2 2 4 6 15 18 17 22 23 19 20 24 27 23 21 18 14 22 20 14 7 3 11 15 15 12 10 10 10 9 9 7 8 8 9 8 6 4 4 3
2 1 3 1 3 3 3 2 1 0 2 2 2 2 3 3 2 2 6 18 19 15 16 23 22 23 27 27 25 23 8 21 21 15 12 11 14 15 14 12 11 10 9 8 7 8 7 9 8 6 5 4 4 3
2 2 2 2 4 4 3 3 3 4 2 1 3 4 3 4 4 2 4 14 18 21 24 25 25 25 25 21 19 18 10 15 16 14 14 14 14 15 13 13 12 10 9 8 7 8 8 8 7 5 4 3 4 4

GFSWCAN_925_spd_132.txt.gz
Wind_Speed
10 8 13 20 24 28 22 22 21 21 22 21 19 18 16 14 14 17 14 10 7 3 2 4 2 4 4 3 5 4 4 2 2 3 2 2 2 1 2 1 3 4 4 3 2 1 5 1 2 2 1 4 5 7
5 7 7 21 26 28 25 25 23 20 20 20 19 18 16 14 12 21 11 18 20 6 3 4 12 12 6 4 6 3 2 2 3 3 1 3 2 2 3 2 3 2 5 4 5 4 2 2 4 4 1 4 2 6
4 9 7 12 26 26 25 25 22 21 21 20 19 18 16 12 11 17 13 9 13 4 4 5 4 9 10 12 7 4 0 4 3 2 3 2 3 2 3 3 1 2 2 1 1 1 3 5 4 3 1 2 2 3
4 5 10 8 16 27 26 24 25 24 22 21 19 19 17 15 16 16 16 13 12 3 4 2 6 6 4 11 15 12 10 7 6 3 3 2 2 2 2 2 3 4 2 3 4 4 1 4 3 3 2 4 2 3
4 5 8 11 11 15 27 27 25 26 23 23 21 18 18 16 17 20 22 19 11 5 3 3 3 9 8 14 18 18 16 5 3 3 3 1 2 2 1 2 2 4 6 4 5 3 3 1 5 4 5 6 6 4
6 6 7 9 13 13 26 26 31 24 24 22 21 19 19 18 20 10 4 8 12 7 4 3 1 4 7 14 16 12 8 4 3 3 2 0 1 2 2 2 4 4 4 5 3 4 3 3 5 3 3 4 8 6
9 7 9 9 11 13 16 27 31 30 22 23 21 19 17 13 8 7 3 6 7 6 3 3 2 3 8 5 3 3 5 2 3 2 2 2 1 3 2 3 3 5 4 3 2 3 3 2 2 3 6 6 8 7
10 9 9 11 12 13 14 22 28 32 27 24 23 23 20 17 11 9 12 12 7 10 3 3 2 2 3 2 2 2 2 2 3 2 1 2 1 1 3 5 2 4 6 5 5 5 3 6 6 7 7 6 4 5
13 12 12 12 14 14 16 17 31 28 31 32 31 24 15 7 5 5 14 11 14 7 3 2 4 3 1 2 2 2 1 2 1 1 1 3 2 4 1 2 5 5 3 9 8 8 6 6 4 5 5 6 5 6
16 15 15 15 14 14 17 21 25 39 39 38 23 7 3 3 20 8 4 4 4 3 3 2 1 3 3 1 1 2 2 1 1 3 3 2 3 4 4 5 5 8 7 5 7 3 2 1 1 3 5 5 6 6
18 17 17 17 16 15 18 21 32 51 40 6 3 2 11 13 3 3 3 3 2 3 1 1 2 4 1 3 2 1 2 1 1 3 3 2 3 3 6 7 6 9 11 10 10 8 7 5 3 3 4 7 8 8
20 19 19 17 16 16 19 18 39 18 11 10 19 13 6 3 3 5 1 1 1 2 1 3 3 3 2 1 3 1 3 1 3 3 2 3 2 6 7 7 6 8 10 10 10 9 8 8 7 7 6 7 8 7
23 21 20 17 16 15 19 33 20 31 43 23 7 3 3 2 5 4 5 0 1 3 3 2 1 3 2 2 3 2 4 4 1 1 3 3 4 6 7 7 7 9 10 10 10 10 9 9 9 8 7 7 6 8
25 22 20 18 17 15 27 32 39 24 8 3 4 4 3 4 4 4 4 4 3 3 5 3 2 3 2 2 2 3 3 2 1 0 5 3 7 8 6 6 6 5 7 8 8 10 10 10 9 8 8 8 6 8
24 22 19 17 18 19 18 28 17 7 5 2 3 3 4 2 1 3 2 3 2 2 4 3 3 2 1 3 2 3 3 3 5 4 3 2 8 9 7 6 7 6 8 9 10 10 10 9 8 7 7 8 8 9
24 19 13 18 22 28 20 15 3 3 3 3 3 3 2 4 3 2 2 3 3 3 2 3 2 2 1 4 3 5 6 5 4 3 2 7 7 6 7 6 10 13 13 12 10 9 8 7 7 6 5 5 6 8
15 6 19 23 19 13 8 3 2 3 3 3 2 1 2 3 3 3 3 4 1 2 3 3 4 6 1 2 3 4 5 3 2 3 4 4 7 7 10 12 14 14 13 10 9 6 4 5 4 3 4 3 3 3
16 24 24 26 20 11 0 4 3 4 4 2 3 2 2 2 3 2 1 1 2 2 2 3 3 2 4 5 3 3 2 2 3 3 2 4 10 15 15 14 14 14 13 11 8 9 11 6 4 3 4 5 2 5
28 25 21 19 13 4 2 3 4 4 2 2 2 2 2 2 2 1 1 1 1 1 3 2 2 3 3 3 3 3 5 4 4 2 2 9 17 17 17 15 14 12 12 12 10 10 9 8 6 6 7 5 5 7
23 24 23 19 6 2 3 2 3 4 2 2 2 2 2 2 1 1 1 1 1 2 2 2 4 3 3 2 3 3 4 5 7 5 2 1 12 16 16 16 14 12 11 12 12 10 8 7 5 5 4 6 4 2
18 21 18 13 2 4 3 2 4 2 2 2 1 2 0 2 2 1 0 1 2 2 3 3 3 2 3 1 3 12 13 15 6 4 5 4 11 17 15 14 15 14 12 11 11 8 5 3 3 2 3 3 4 4
14 14 5 5 1 2 3 3 4 3 3 2 1 2 2 1 1 1 1 1 2 3 3 3 2 2 3 3 5 12 17 16 14 16 17 20 4 8 12 15 14 11 10 9 10 9 5 3 2 1 0 1 2 1
17 8 3 3 4 4 1 3 3 1 3 1 1 2 1 1 1 1 0 2 3 3 3 2 4 5 5 6 13 17 19 21 13 16 19 18 17 16 16 14 12 12 11 10 8 6 4 3 1 1 1 2 3 3
8 3 3 2 3 1 1 2 2 2 2 2 2 2 2 2 0 2 3 3 2 2 2 4 10 5 6 8 3 7 13 16 19 17 22 22 15 12 15 15 13 10 9 10 10 7 5 3 2 4 3 4 4 4
5 5 4 3 3 3 3 2 2 2 2 3 2 0 2 1 1 1 3 3 2 2 2 6 5 2 3 2 4 8 14 22 17 12 17 21 19 15 12 11 10 10 9 9 10 9 8 8 6 5 4 3 3 5
4 3 2 1 0 2 3 3 3 4 3 2 1 1 2 2 1 5 3 3 3 4 4 7 5 3 1 5 5 6 14 18 23 15 18 22 22 21 17 12 9 8 9 8 7 8 9 9 9 8 8 5 5 5
2 2 1 1 0 2 3 2 2 3 2 3 3 2 2 1 4 3 2 2 2 6 17 21 19 11 9 12 13 14 17 18 18 17 18 20 17 15 15 18 16 9 9 8 7 5 5 5 5 5 5 6 6 5
2 1 2 2 2 2 3 2 3 3 3 1 3 3 5 6 4 2 3 2 5 5 15 20 19 18 20 22 21 22 19 17 17 17 17 12 11 12 12 10 7 7 9 7 4 4 5 4 3 3 3 3 5 2
2 2 2 3 2 2 1 2 3 1 0 2 3 3 3 2 2 1 1 2 8 13 15 16 13 15 19 22 23 23 25 26 22 6 5 2 4 7 11 11 12 12 10 8 7 5 5 6 5 5 4 3 1 1
2 1 3 2 2 2 2 1 1 2 1 1 1 1 2 3 3 4 3 8 14 14 16 21 23 23 18 19 18 20 25 25 22 19 8 7 14 15 18 16 14 13 12 10 8 8 8 6 6 5 5 3 2 2
1 2 3 2 2 2 3 2 3 0 3 2 2 2 2 3 5 3 3 8 10 12 17 18 19 20 23 20 19 17 14 24 20 13 6 5 14 18 19 16 13 12 12 11 11 9 8 8 7 7 5 4 3 3
2 2 2 0 2 2 3 2 1 1 3 3 2 2 4 3 2 3 9 2 8 13 12 19 18 22 24 23 25 23 7 26 24 18 13 10 13 18 18 15 13 13 13 11 10 9 8 8 9 8 6 4 4 5
2 2 3 2 4 4 3 3 4 4 3 2 2 2 2 3 1 2 13 8 6 11 16 19 21 18 22 23 22 23 11 8 20 19 15 13 16 19 17 15 14 13 12 11 10 9 10 9 8 7 6 5 4 5

GFSWCAN_925_spd_138.txt.gz
Wind_Speed
20 17 9 15 16 18 15 17 17 18 14 17 20 18 15 17 20 22 18 21 9 7 9 3 4 9 14 12 12 15 8 2 4 6 5 4 4 4 6 10 13 8 9 6 7 8 8 9 7 4 5 5 3 2
18 17 13 15 18 21 18 17 19 20 18 18 18 12 13 13 18 21 11 19 21 8 9 22 24 15 6 15 17 6 6 8 4 5 3 3 3 4 9 7 2 6 2 4 6 1 8 7 1 5 3 2 2 2
16 16 13 16 22 22 21 18 22 19 16 14 13 15 15 18 20 32 28 30 32 11 11 9 8 16 16 12 10 6 2 4 4 3 4 3 3 3 5 4 8 4 4 3 6 4 5 5 5 4 3 2 2 2
14 15 13 21 24 23 20 18 19 21 17 18 16 24 28 32 35 33 16 12 14 7 6 10 11 10 10 12 14 13 15 9 8 4 3 3 3 2 3 4 3 2 8 5 2 6 4 4 5 5 4 2 3 1
12 14 13 21 26 24 22 20 18 20 19 18 25 32 36 38 36 39 31 17 14 7 6 9 20 23 20 25 25 23 19 12 7 3 3 3 3 3 3 3 4 5 4 4 2 5 2 3 7 5 4 3 3 2
9 12 13 27 27 26 25 23 22 21 22 22 21 19 16 14 14 14 5 21 25 21 5 5 3 14 19 24 23 16 9 6 4 3 3 3 2 0 3 3 4 5 4 3 4 5 8 9 7 5 5 4 4 5
7 13 12 28 28 26 26 26 23 23 23 20 17 15 13 11 16 9 5 3 14 13 4 5 4 5 8 11 7 9 13 5 4 3 3 3 3 1 2 3 6 7 8 8 9 9 7 5 4 5 7 6 4 3
7 12 15 21 30 28 26 25 23 22 24 28 30 31 31 31 23 14 16 11 12 10 5 4 4 4 5 5 4 3 4 3 4 3 2 3 4 1 2 7 7 8 9 9 7 6 8 12 9 7 5 3 1 3
8 11 12 23 29 27 27 26 24 24 24 23 21 19 17 13 5 4 10 19 21 9 4 2 7 5 3 3 4 3 2 3 2 2 3 4 3 3 4 7 7 8 5 10 10 10 10 8 7 5 3 2 1 3
10 11 11 13 31 30 28 27 27 25 19 11 6 7 4 3 4 6 4 3 5 4 3 4 2 5 4 3 2 3 2 2 2 2 4 2 2 6 5 6 7 7 9 11 11 8 7 6 4 3 4 4 4 4
11 13 12 11 22 32 28 28 27 23 11 5 3 3 3 5 2 3 3 4 2 4 3 3 8 9 2 4 3 1 3 2 2 4 3 3 2 5 8 9 8 8 8 10 10 9 7 5 5 5 5 5 5 5
13 13 13 12 14 33 32 30 26 7 3 5 13 7 3 3 3 5 3 1 3 3 3 7 6 5 3 1 3 2 3 1 3 5 3 2 3 10 11 10 9 10 11 12 11 11 10 9 8 8 7 7 6 5
16 15 14 13 22 34 33 31 13 24 20 6 4 3 3 3 4 3 3 3 4 4 5 7 6 3 3 3 4 2 2 2 6 3 2 1 9 9 10 10 10 11 12 13 12 12 12 12 10 10 9 7 6 7
17 17 15 14 27 36 26 24 24 3 4 3 2 4 4 3 3 3 4 5 4 8 11 8 4 3 2 3 2 3 2 3 4 3 3 4 11 12 10 9 10 10 11 12 11 12 12 13 12 10 10 8 8 9
19 19 20 19 25 27 27 20 9 8 5 3 2 4 3 3 4 4 5 5 6 9 7 6 4 3 2 3 1 3 4 4 3 2 2 7 13 13 11 10 10 10 10 11 12 12 12 12 12 11 9 9 10 10
23 21 20 20 24 21 18 16 11 7 4 3 4 4 3 5 4 3 6 8 6 7 4 3 3 2 2 3 3 3 3 3 2 3 5 10 12 12 11 10 12 13 13 13 12 12 12 11 11 11 9 9 9 9
13 7 16 20 23 19 15 6 5 4 3 3 3 4 3 4 5 4 5 5 5 3 2 2 3 2 3 2 3 3 2 2 4 5 6 10 12 12 13 15 14 15 15 14 13 12 11 9 9 8 8 6 6 7
13 21 20 18 14 12 5 4 3 3 4 3 3 3 2 2 6 4 4 5 3 2 1 2 3 3 3 4 3 3 3 4 5 6 7 10 14 16 16 17 16 16 15 14 13 12 10 8 8 6 7 7 6 5
22 21 19 15 15 4 2 3 3 4 3 2 3 2 3 4 4 3 4 5 4 2 3 1 1 3 3 2 1 4 6 5 6 7 8 13 16 17 17 17 17 16 15 14 14 12 9 7 7 8 7 7 6 5
21 17 13 7 4 2 3 3 2 4 3 3 3 3 2 3 2 3 3 2 2 2 1 2 2 0 0 2 1 3 7 8 10 10 8 8 13 16 17 18 16 17 15 14 13 12 11 10 8 7 6 6 7 6
13 13 13 6 2 3 3 2 3 3 4 3 4 2 3 1 3 3 2 1 0 2 3 2 1 2 3 3 3 7 11 15 9 7 11 10 16 16 16 15 18 16 15 14 13 10 9 8 9 8 8 7 7 7
7 7 3 3 2 3 3 5 4 4 3 4 4 2 3 3 3 3 2 3 3 2 1 1 1 4 4 3 5 7 14 12 10 14 16 21 9 14 15 17 17 15 14 14 13 12 10 9 10 9 8 7 6 6
5 3 2 2 3 3 3 1 3 2 3 3 2 3 2 2 2 3 3 3 2 2 1 2 3 2 4 4 8 9 13 14 11 14 18 17 16 16 17 17 16 16 14 13 12 11 10 10 11 9 8 7 6 5
3 3 3 3 3 3 1 2 2 3 3 2 3 3 4 3 3 2 3 2 1 2 2 3 6 4 5 7 5 10 11 11 12 15 17 18 16 16 17 16 14 13 13 15 13 12 12 11 11 10 8 6 6 5
1 3 1 3 2 3 3 4 3 2 3 3 4 3 3 3 3 3 2 1 1 2 3 5 7 4 4 5 7 11 10 13 14 12 16 16 17 17 15 14 13 12 13 16 14 14 13 12 11 10 9 7 7 6
3 3 2 1 2 1 3 3 3 3 3 3 2 3 2 2 3 3 1 0 0 1 2 5 6 6 5 7 7 10 13 12 14 14 15 17 19 19 17 15 14 12 14 14 15 15 13 12 11 10 9 8 8 6
3 3 2 2 1 3 3 3 2 3 2 3 4 5 4 3 4 1 1 1 2 3 4 5 8 8 5 8 9 9 12 12 10 10 14 15 13 13 16 17 16 14 17 15 14 14 14 13 12 11 10 8 8 7
3 2 1 2 2 2 2 2 3 2 3 2 5 4 4 3 2 2 3 5 4 5 2 4 4 4 5 7 10 14 12 12 13 15 15 11 9 9 10 10 12 14 16 15 12 11 11 11 11 11 10 9 8 7
2 2 1 2 2 3 3 2 2 2 2 1 1 2 2 3 3 5 6 8 5 2 1 4 4 6 8 9 9 8 14 17 17 11 14 9 9 8 12 14 16 16 16 15 13 10 9 9 10 10 10 10 10 9
2 2 1 1 1 2 2 3 2 3 2 2 2 2 2 3 6 9 8 8 6 4 3 1 5 7 8 11 10 8 9 11 9 13 10 10 15 15 20 18 17 17 15 13 12 12 13 13 14 14 13 11 8 7
2 0 2 2 2 2 2 2 0 1 1 2 2 1 2 3 3 10 16 12 8 4 2 0 3 4 8 10 12 12 9 13 12 10 8 7 14 17 21 20 18 18 16 15 14 13 14 13 11 11 10 9 8 7
2 2 1 2 2 2 1 1 1 1 2 1 2 0 2 3 2 4 15 16 11 9 9 6 3 3 5 4 6 6 6 13 17 15 11 9 12 15 18 18 20 18 16 15 14 13 14 12 12 11 9 8 7 6
1 1 1 1 2 2 2 0 2 1 1 2 2 2 2 3 3 3 8 13 9 10 10 9 7 4 3 7 7 10 5 4 15 17 13 9 10 15 19 20 20 18 17 15 13 12 12 12 11 10 9 8 7 5

GFSWCAN_925_spd_141.txt.gz
Wind_Speed
25 29 25 11 10 9 8 4 5 7 10 18 17 22 28 29 28 33 16 16 12 5 5 13 25 19 17 13 14 21 11 9 9 9 7 6 6 12 9 13 14 10 10 8 11 10 11 12 9 5 6 6 6 5
24 27 6 11 14 12 9 8 10 12 13 18 17 23 27 30 28 31 17 22 24 8 6 24 16 9 5 16 16 16 10 15 7 8 6 6 6 5 12 8 14 7 5 8 6 4 10 12 7 7 4 4 5 3
22 24 4 13 16 15 12 12 14 11 17 16 16 22 31 28 27 30 33 37 36 11 7 8 13 9 13 21 27 11 9 4 2 4 5 3 4 7 7 5 11 3 6 4 6 8 10 8 7 6 5 5 6 3
21 21 16 18 18 17 12 11 11 14 21 29 28 29 31 40 39 36 26 12 22 7 7 7 12 10 12 24 19 11 16 13 9 7 4 3 3 3 4 6 8 4 8 6 5 8 8 6 6 7 7 4 8 2
18 11 19 20 19 18 16 12 12 11 23 29 35 36 31 36 34 29 25 21 8 6 7 13 25 19 19 22 22 21 18 14 9 4 4 5 4 4 5 4 4 6 4 6 3 10 2 10 8 6 6 5 4 2
16 9 22 22 21 18 16 14 9 9 14 18 25 24 22 29 28 27 7 17 24 21 7 5 5 15 21 23 21 15 10 7 7 4 5 4 2 2 6 4 5 8 7 3 4 7 8 10 8 7 8 6 5 6
13 8 26 24 24 22 20 17 15 12 15 21 22 22 21 19 18 7 6 7 9 13 5 5 4 5 12 15 11 10 11 6 6 5 3 5 5 2 2 4 10 10 11 12 12 12 8 6 4 8 8 7 4 3
10 11 25 22 22 19 20 21 22 24 24 27 29 29 29 31 22 18 18 13 11 9 5 4 4 5 5 6 4 3 4 4 5 3 3 5 4 2 3 11 13 13 12 11 7 7 10 11 9 6 6 4 2 2
8 14 24 25 25 25 21 21 21 24 22 21 20 16 15 13 5 6 11 17 22 9 4 3 6 5 3 6 7 3 3 3 1 3 3 4 3 2 14 12 12 11 8 10 9 10 10 8 8 6 4 1 1 3
8 15 29 24 22 22 21 19 18 17 15 11 10 7 4 4 4 9 6 4 5 4 5 3 6 6 7 5 2 3 1 3 3 3 4 2 6 8 6 10 10 7 13 12 10 8 9 7 5 3 4 5 5 5
10 13 22 24 23 25 24 18 15 7 7 4 3 3 5 4 2 3 3 4 2 4 3 2 10 10 3 5 4 2 3 2 3 4 3 4 4 7 9 9 9 9 9 8 7 7 5 5 6 6 6 6 7 7
11 10 15 28 25 23 20 17 10 4 4 5 12 6 3 2 3 4 3 2 3 4 4 8 9 7 3 0 3 2 3 1 4 5 2 5 4 12 11 11 10 11 12 10 11 11 11 10 8 9 8 9 8 8
11 9 11 30 25 20 18 13 4 18 6 5 4 3 2 2 3 2 4 3 4 5 6 9 8 3 3 3 4 2 2 5 7 2 4 4 11 11 11 10 11 13 13 13 14 14 14 13 12 11 11 9 9 9
13 11 14 25 27 22 17 10 10 6 3 3 2 4 4 4 5 5 8 8 5 10 11 10 5 3 3 3 2 4 3 3 3 4 4 7 12 13 11 11 11 11 11 13 14 14 14 13 13 12 10 8 9 9
19 23 22 28 28 24 17 10 4 8 5 4 4 5 5 5 6 4 6 9 10 9 10 7 5 5 3 3 2 4 3 3 4 3 4 8 13 13 11 12 12 11 11 13 14 14 14 14 13 13 10 10 10 8
23 20 22 23 22 19 12 6 7 4 3 4 6 5 5 7 7 6 7 7 7 7 5 4 3 3 3 4 2 2 5 3 3 5 8 11 14 13 13 12 13 15 15 15 15 15 14 13 13 13 11 10 9 8
13 6 19 19 22 17 9 7 6 5 4 4 4 5 4 6 7 5 5 6 5 3 2 3 3 2 2 2 3 2 1 5 6 7 8 12 13 13 13 16 16 16 16 16 16 15 14 13 13 11 10 8 7 6
17 16 18 17 14 10 6 7 3 4 5 4 3 4 4 3 6 4 3 4 2 2 1 3 3 3 3 4 3 4 4 5 6 7 8 10 13 17 17 17 17 17 17 16 16 15 14 12 10 8 10 8 7 5
18 15 14 13 8 5 3 4 4 3 5 3 3 3 4 3 4 4 4 3 3 3 2 1 2 1 2 3 5 5 7 5 8 8 8 15 17 17 17 17 18 17 17 17 16 13 12 10 6 9 9 9 7 6
19 14 11 9 8 3 3 3 2 4 3 3 3 4 3 3 2 2 3 1 2 1 2 2 2 3 3 3 3 3 6 8 10 10 9 9 15 17 17 18 16 17 16 15 12 11 10 9 8 8 7 7 7 6
11 9 7 5 4 6 3 2 3 3 4 3 4 3 3 3 3 3 2 0 1 0 1 1 3 4 5 4 3 6 8 12 8 7 10 10 17 16 17 15 18 16 15 14 13 12 11 10 9 8 8 7 6 6
7 7 4 2 1 3 4 4 4 4 2 4 4 3 4 3 3 3 2 2 2 2 2 1 2 3 4 3 4 3 11 8 8 15 17 21 10 13 15 18 17 15 14 14 13 13 11 10 10 10 9 7 6 6
4 2 2 1 2 3 4 2 3 3 4 4 4 4 2 2 2 2 2 2 1 3 2 3 4 5 8 6 7 9 10 12 11 13 16 16 16 16 17 17 16 16 14 14 13 13 12 11 11 10 9 9 8 7
3 3 3 2 3 4 2 2 2 3 3 3 3 4 3 2 3 3 3 2 3 3 3 3 5 4 4 6 6 9 13 11 12 13 16 17 15 16 16 16 15 15 14 15 14 14 12 13 12 11 10 9 8 8
2 4 2 4 1 3 3 4 2 3 3 3 4 3 3 3 3 3 2 2 1 1 2 2 4 4 3 4 6 11 12 12 13 10 15 15 16 16 16 15 15 15 15 16 15 15 14 13 13 12 11 9 8 7
2 3 2 1 2 2 3 3 3 4 4 3 2 3 3 3 4 2 2 2 2 2 1 2 3 4 4 6 6 8 13 12 12 13 15 16 18 17 16 14 15 15 15 16 16 16 15 14 13 12 11 9 8 8
2 2 2 2 1 3 3 3 3 3 3 4 4 6 5 4 3 3 3 6 3 7 6 3 2 4 3 5 4 8 13 11 10 12 14 14 14 13 15 16 16 15 18 16 15 15 15 15 13 12 11 9 9 10
2 2 0 2 2 1 2 3 3 3 3 2 5 4 4 0 3 3 4 6 6 6 5 4 4 5 4 7 8 10 11 10 15 16 14 10 7 7 9 8 10 17 17 15 14 13 13 13 13 12 11 10 8 8
1 1 2 2 2 2 3 3 3 3 3 2 1 3 3 3 4 5 7 8 6 5 3 2 3 4 6 6 7 8 11 15 16 12 13 8 11 10 11 11 13 14 15 14 13 12 11 11 10 11 10 9 9 8
2 3 1 2 2 3 3 3 2 2 3 3 1 3 3 3 8 9 9 10 9 8 6 5 1 2 3 5 5 6 7 9 7 10 9 8 13 16 15 15 16 15 15 15 14 13 13 12 12 12 12 11 10 8
2 1 1 2 3 3 3 2 2 1 1 2 2 3 4 4 5 11 15 11 9 6 6 6 3 1 2 3 5 7 6 6 6 5 6 8 15 15 16 16 16 15 15 15 14 13 14 13 12 12 12 11 10 8
2 2 1 2 2 2 1 1 1 1 1 2 2 2 3 3 3 3 13 13 10 9 10 10 9 9 4 3 1 2 2 7 10 8 7 8 10 13 16 16 15 15 15 14 13 13 15 13 12 12 11 10 9 8
1 1 1 2 3 3 2 1 1 2 1 2 2 2 3 4 4 4 6 12 9 9 10 10 9 8 7 3 1 3 3 5 8 10 10 10 13 15 15 14 15 15 16 14 13 14 14 13 12 11 10 10 8 7

GFSWCAN_925_spd_144.txt.gz
Wind_Speed
24 27 31 35 7 5 2 4 6 11 13 25 16 23 17 13 44 82 50 60 37 16 10 24 22 21 21 18 10 13 11 4 6 6 6 5 5 10 7 12 14 9 9 9 9 9 12 15 8 2 8 11 11 6
23 27 32 18 6 5 2 1 2 11 17 6 6 8 27 27 40 47 26 53 43 5 1 4 7 16 28 23 11 18 4 14 6 6 5 4 6 6 9 8 14 8 7 6 8 4 11 11 13 10 7 11 8 7
22 28 26 11 8 5 5 7 11 13 5 1 3 9 17 26 29 39 33 36 27 6 5 5 5 7 9 13 32 8 4 4 5 4 2 2 4 1 4 4 9 7 14 5 6 8 11 12 12 9 9 11 9 7
24 27 9 12 9 7 7 8 15 14 9 9 8 11 20 28 36 42 26 21 18 5 4 2 8 15 17 24 23 11 16 8 5 6 3 3 3 2 3 5 7 4 5 8 7 13 13 11 10 10 10 12 9 8
24 19 15 13 10 9 9 11 16 18 21 20 20 35 35 38 38 36 27 14 13 5 5 6 15 20 20 29 18 21 14 10 7 4 3 3 3 4 5 5 2 4 3 5 3 11 3 11 11 11 10 9 6 5
21 11 18 15 13 11 5 7 14 20 21 26 29 33 40 41 35 29 7 15 29 25 7 4 5 14 21 15 11 11 11 7 2 3 4 3 3 1 2 3 7 11 10 6 6 11 13 13 13 16 13 11 9 8
17 12 16 15 14 9 6 9 15 21 23 23 25 19 13 16 17 6 6 12 20 22 5 5 4 1 22 13 8 8 10 6 6 4 3 4 3 1 1 4 13 11 13 13 13 12 10 10 6 12 11 9 6 6
9 18 18 16 14 12 11 15 18 21 25 34 26 27 29 26 24 18 21 19 16 7 4 4 5 4 6 8 6 5 6 5 3 2 3 6 2 0 4 14 14 14 15 13 11 12 12 12 12 9 9 8 4 5
7 21 20 19 15 15 15 16 15 16 18 19 19 21 16 10 5 6 15 19 23 8 3 3 7 6 5 7 8 4 3 3 2 2 5 5 2 3 16 15 15 14 11 13 14 14 14 12 10 9 7 4 5 7
9 17 17 17 15 13 12 11 13 17 15 10 9 7 3 4 3 7 7 4 4 4 4 4 5 7 7 5 3 3 2 3 3 3 3 4 4 8 12 12 11 12 14 13 12 12 11 10 8 6 9 8 9 9
12 18 18 16 14 11 9 6 10 14 12 6 3 3 2 7 3 4 4 3 2 4 3 5 10 9 5 6 4 2 3 2 3 3 4 3 4 5 11 12 11 13 12 9 10 10 11 9 9 9 9 10 12 13
13 20 17 17 15 10 5 6 11 7 4 7 12 5 6 4 3 5 3 2 4 3 4 9 9 6 5 3 3 2 2 1 4 4 2 5 5 11 11 11 11 12 13 12 15 14 15 14 13 15 14 13 12 12
11 21 18 17 15 11 6 6 10 7 4 4 3 3 2 3 3 3 4 3 4 4 5 8 7 3 3 4 3 2 2 3 5 2 3 3 9 11 10 10 11 14 17 17 17 18 18 18 17 16 15 13 13 13
10 20 17 18 12 8 5 4 16 11 6 3 3 5 5 4 5 4 9 8 6 9 10 7 3 3 3 3 1 4 2 2 4 4 3 7 13 13 12 10 11 12 11 15 16 17 17 17 16 16 16 14 13 11
14 25 23 16 14 10 5 5 14 8 4 4 5 5 6 3 4 3 8 12 9 8 7 6 4 5 3 3 2 4 4 3 3 2 5 9 14 13 11 13 12 11 11 13 16 15 16 16 16 15 13 14 13 12
25 27 18 17 10 5 3 9 11 5 3 4 6 7 6 6 7 7 7 8 6 3 3 3 4 3 2 3 2 2 5 2 3 4 8 11 14 12 12 12 12 14 15 16 16 16 16 16 15 15 15 13 12 11
14 6 11 15 13 10 6 5 6 5 4 5 4 5 7 5 5 3 4 5 3 2 2 2 3 4 0 2 3 3 4 4 6 7 8 12 12 12 12 15 15 16 16 17 17 16 16 17 17 14 12 10 10 8
16 14 17 16 8 6 6 9 4 5 8 5 5 5 6 4 3 3 4 6 4 3 4 3 2 2 2 2 3 4 3 5 6 7 8 10 12 16 16 16 17 17 18 17 17 17 17 14 12 11 13 11 10 6
14 14 12 10 6 3 3 5 5 4 5 3 3 3 3 3 4 4 4 5 5 4 2 2 2 3 4 5 5 7 6 6 7 7 8 15 17 16 17 18 18 18 18 18 17 15 14 14 9 13 12 11 9 8
14 13 13 13 8 3 4 3 4 4 3 2 3 4 3 3 1 2 2 4 3 2 3 3 4 3 3 3 3 5 5 7 8 9 8 7 15 18 17 18 16 18 17 16 14 14 13 9 9 11 12 10 9 8
9 7 10 8 7 10 4 3 4 3 3 3 2 3 3 3 3 3 2 3 3 3 3 4 4 4 5 4 5 9 11 12 7 7 8 9 15 16 17 16 19 17 15 15 13 12 12 11 11 9 8 7 7 8
4 7 4 8 4 4 4 7 4 3 3 3 3 2 3 3 2 2 1 1 1 3 3 3 3 3 3 4 4 6 12 11 10 18 19 19 9 11 13 17 16 14 14 14 14 14 12 12 12 11 10 8 8 8
4 3 3 2 3 4 2 2 3 2 3 4 4 4 2 2 2 2 1 0 3 2 3 6 4 9 8 6 6 9 9 11 10 13 17 15 16 16 16 17 15 15 13 14 14 15 12 14 14 12 11 11 9 8
6 3 3 3 4 3 1 1 2 3 2 3 3 4 3 2 3 1 1 2 2 3 3 3 4 3 4 5 4 7 8 9 12 14 15 14 13 13 16 15 14 14 15 16 15 15 14 14 14 12 12 11 10 9
2 2 1 4 2 4 4 4 2 3 3 2 3 3 3 3 2 3 1 3 4 5 4 0 2 3 1 3 4 10 13 9 12 7 13 14 14 15 14 14 14 14 14 17 16 16 15 15 14 13 12 12 11 9
4 5 4 2 1 2 3 3 4 4 5 3 2 3 2 3 4 2 2 4 3 4 3 2 2 2 2 2 4 7 11 7 13 11 13 13 17 16 14 10 12 13 16 16 16 16 16 15 15 14 13 11 10 10
3 3 2 2 1 2 3 2 3 3 3 4 4 5 4 5 4 3 4 6 3 5 5 4 5 4 3 3 5 10 12 7 4 12 16 13 15 15 16 14 14 16 17 16 16 17 18 17 15 14 13 12 11 10
3 3 1 3 2 1 2 3 4 3 3 2 6 4 3 3 3 3 4 5 5 4 5 5 7 8 8 8 9 10 9 9 14 18 18 13 9 8 11 11 12 19 20 18 16 15 16 17 15 14 13 12 11 13
2 2 2 2 2 2 3 4 3 3 3 3 1 3 3 3 4 5 6 9 8 5 6 5 5 4 5 5 6 6 7 9 11 10 11 7 9 7 11 12 17 18 17 16 15 14 13 16 15 13 12 10 11 9
2 2 2 2 3 3 3 4 3 3 3 2 2 4 3 3 9 11 11 11 10 8 6 5 4 2 4 3 4 2 4 6 6 7 7 7 12 14 15 16 16 17 17 16 15 13 14 14 13 12 12 12 10 10
2 2 0 2 3 3 3 3 3 3 2 3 4 6 5 4 6 12 16 14 11 12 13 11 5 6 6 2 3 5 5 4 3 3 3 9 21 21 18 18 17 17 17 17 16 14 14 14 13 14 13 12 12 11
2 3 2 2 3 2 3 1 1 2 2 2 2 2 4 4 3 3 13 14 12 11 11 11 11 11 14 11 8 6 7 7 6 7 9 11 13 15 17 18 17 18 17 17 15 14 16 15 15 15 15 13 13 10
1 1 1 3 4 4 1 2 2 2 2 2 3 3 3 4 4 3 8 12 10 10 11 10 9 10 8 9 5 4 4 4 6 7 8 9 11 14 15 16 16 15 16 15 13 14 15 14 14 13 13 13 11 9

GFSWCAN_925_spd_150.txt.gz
Wind_Speed
18 21 23 21 24 27 35 37 37 20 17 21 23 24 28 38 56 54 49 42 33 9 10 17 21 19 5 11 13 4 3 2 1 6 4 4 4 6 4 6 8 10 8 4 4 5 10 3 3 5 6 10 13 11
19 20 19 22 26 34 37 27 15 18 19 21 25 27 30 29 31 48 13 53 49 12 4 30 30 40 22 10 9 5 5 4 5 3 3 2 1 2 6 4 2 2 6 6 7 5 2 2 5 10 13 16 9 14
18 17 21 25 31 32 9 11 13 19 23 27 29 33 38 38 40 43 21 24 38 11 2 3 14 16 39 31 23 7 2 5 3 4 4 2 3 3 4 3 4 2 5 3 4 3 7 15 13 11 13 14 13 13
16 19 24 30 25 8 7 13 19 17 16 21 27 33 35 40 46 45 29 33 29 6 6 6 6 5 12 29 30 16 10 5 5 2 2 3 1 1 2 3 4 4 5 6 5 9 12 12 16 16 15 15 16 13
16 23 28 23 7 4 11 14 12 5 14 15 18 23 32 36 45 48 37 41 41 7 7 4 3 8 14 21 25 21 11 7 4 2 2 2 2 2 1 3 1 2 6 6 4 14 6 12 16 17 17 15 15 16
18 26 18 4 6 6 11 11 9 7 15 13 21 22 16 9 37 44 5 36 44 19 4 4 2 3 11 16 12 7 9 3 3 4 2 2 2 2 2 3 3 2 5 11 5 8 11 14 15 14 16 12 13 14
21 17 5 9 3 6 12 10 9 11 19 21 20 32 32 23 22 7 11 35 44 22 2 3 2 2 16 9 2 4 4 3 2 3 2 3 3 3 1 2 4 8 13 19 23 17 11 4 9 13 18 20 22 20
16 7 10 8 5 8 16 13 12 13 19 23 26 31 32 24 23 18 47 47 30 8 1 3 2 2 3 3 3 3 3 3 2 3 3 3 3 2 1 11 13 14 17 14 11 10 13 13 15 13 22 22 15 12
11 11 9 9 5 5 13 11 6 7 12 20 14 17 24 14 6 15 37 28 15 3 2 1 3 3 3 2 3 3 1 3 1 3 3 3 1 2 12 15 13 16 10 15 17 17 15 16 14 12 15 15 15 11
10 13 9 6 3 6 15 12 9 8 3 6 5 5 4 4 18 15 10 3 4 4 3 1 2 3 4 2 2 3 2 2 2 2 3 3 2 9 13 13 11 15 17 19 20 11 14 12 12 12 13 11 15 13
19 14 9 5 5 8 15 16 6 6 6 4 3 2 12 7 4 3 3 3 3 3 1 2 5 10 3 4 3 1 2 2 3 3 3 2 1 1 11 13 11 13 13 7 11 11 13 15 15 14 12 16 17 16
20 14 9 6 4 10 16 15 9 10 3 3 4 3 3 3 2 5 2 1 2 3 2 4 5 3 2 1 3 3 3 2 3 3 4 2 1 8 13 12 10 11 12 13 20 16 19 20 20 20 17 17 17 21
17 17 10 6 4 11 15 15 8 4 4 3 4 4 3 4 7 3 3 2 3 3 2 3 3 2 3 4 3 3 4 1 2 3 2 2 5 9 13 13 13 15 22 21 19 23 23 21 18 23 20 22 25 23
17 13 9 6 6 11 18 12 8 6 9 3 4 6 3 4 3 1 2 4 2 6 8 4 3 3 1 4 2 4 2 2 3 3 5 6 12 11 11 11 16 12 14 15 16 19 20 20 20 22 24 26 25 23
18 16 13 10 8 11 14 8 10 8 5 4 4 4 4 2 2 2 3 8 4 3 4 3 3 3 2 4 2 3 3 1 3 4 5 9 12 14 13 12 13 12 11 9 16 16 18 21 20 22 24 23 24 22
13 11 14 9 8 10 7 9 13 5 4 3 5 4 4 9 9 8 8 6 4 2 2 3 3 3 1 4 2 2 5 4 2 2 8 10 13 12 12 10 9 15 17 17 17 19 22 21 21 24 22 22 22 23
6 5 7 7 9 16 9 4 6 5 4 4 3 4 3 5 6 4 3 2 2 3 2 3 4 1 2 2 2 3 1 1 5 6 7 11 12 12 10 12 15 18 18 18 20 21 23 25 26 24 20 21 21 19
7 4 5 7 9 6 13 8 4 5 6 3 4 4 4 4 2 3 4 2 3 2 2 2 3 4 2 2 2 1 3 5 6 7 8 9 11 15 17 15 17 19 19 19 20 22 24 24 19 16 24 22 19 18
15 14 8 8 8 4 4 5 6 4 4 2 2 3 2 1 0 3 3 4 0 1 3 3 4 2 2 2 4 4 4 4 5 4 6 12 18 17 17 19 20 19 20 21 21 18 20 21 19 22 23 23 22 21
15 14 13 12 7 4 5 4 5 4 4 2 3 4 2 1 4 3 4 4 3 3 5 4 3 2 3 2 2 4 5 6 8 7 6 5 14 19 16 17 15 19 19 19 18 19 19 18 19 23 24 25 24 22
12 15 13 10 7 12 4 2 4 2 2 3 2 2 2 3 3 4 4 4 5 3 3 3 2 2 3 4 9 11 6 7 5 3 5 6 11 16 16 17 20 18 16 17 15 16 18 16 21 24 24 23 22 21
9 9 5 8 5 4 4 6 3 2 3 1 1 2 2 2 3 3 3 5 3 3 3 2 1 1 3 4 3 8 12 15 16 17 17 18 6 8 11 16 17 14 15 17 17 18 21 23 22 24 23 23 18 19
7 7 6 8 5 5 1 2 3 2 3 1 1 2 2 2 2 2 3 2 2 3 4 4 4 9 5 6 4 9 13 17 8 10 13 11 16 18 17 17 18 16 13 19 22 23 23 19 24 24 22 22 24 22
7 4 4 3 4 1 2 3 2 2 3 1 2 2 1 1 2 3 3 2 2 1 2 1 4 3 2 3 2 2 8 14 12 11 14 15 10 13 18 19 22 21 21 22 23 24 21 24 26 26 26 26 24 22
6 6 4 3 3 4 3 3 3 3 2 1 3 2 1 1 2 2 2 2 2 2 2 4 2 2 1 1 2 3 9 15 11 6 12 15 15 15 14 18 23 22 21 22 23 24 23 27 26 25 25 25 24 21
5 3 3 2 2 4 3 2 2 4 3 2 2 1 1 2 4 2 2 2 2 2 2 3 3 2 2 2 1 3 7 9 13 8 14 19 18 16 11 7 9 15 24 26 28 26 27 29 28 26 25 23 21 20
3 2 2 1 1 2 3 1 2 4 3 3 3 4 3 3 2 1 1 4 2 7 8 8 7 5 2 3 5 2 8 9 13 10 16 21 20 20 21 20 16 22 22 26 28 29 30 30 29 27 25 23 21 18
2 2 3 3 3 1 3 2 2 2 1 1 3 2 3 3 1 1 2 9 11 4 3 6 9 11 11 10 8 6 5 5 6 10 12 15 16 16 16 16 15 17 20 21 24 27 28 28 28 26 24 22 19 16
3 2 3 4 3 4 3 2 1 2 1 1 3 2 2 2 4 5 9 16 12 11 7 10 10 6 7 7 7 7 5 6 6 4 4 2 3 5 13 14 14 16 19 20 21 21 22 22 21 22 21 19 17 17
2 1 2 3 3 1 2 1 1 1 1 3 4 3 3 3 8 15 17 18 17 13 13 14 17 15 13 8 8 6 5 6 3 4 3 3 7 9 10 13 16 20 22 21 19 19 19 19 19 18 18 17 19 18
2 2 2 3 2 1 1 1 1 2 2 3 4 3 3 3 4 20 22 18 15 15 16 15 14 17 16 15 12 8 3 4 4 3 2 3 8 9 10 13 16 18 20 19 20 21 22 22 21 21 21 21 20 20
2 2 2 2 1 1 1 1 1 2 2 2 2 3 2 3 3 4 17 16 16 16 14 12 12 11 13 14 11 7 5 5 3 4 2 5 11 15 13 13 14 16 18 18 18 19 20 21 23 23 22 21 19 16
2 2 2 3 2 1 2 2 2 2 3 2 3 2 2 3 3 1 9 15 14 16 13 12 8 6 7 10 7 8 7 6 4 3 3 4 7 11 11 11 12 12 13 14 13 13 13 15 17 18 17 16 16 15